GFSCGP_sfc_dewp_000.txt.gz
Dewpoint
29 26 24 23 22 24 24 24 23 26 23 20 20 20 21 29 30 30 32 35 37 39 42 46 49 51 52 52 50 50 49 50 52 54 54 55 56 57 57 59 60 60 61 61
28 25 27 26 26 24 24 23 23 24 26 21 22 22 25 29 30 30 32 34 37 39 42 46 48 50 49 50 52 51 50 51 52 54 55 55 56 58 59 59 60 61 61 62
27 28 28 26 25 24 24 23 23 23 26 23 22 20 22 26 32 34 33 34 38 39 41 44 46 46 49 47 48 52 51 49 49 53 56 56 58 59 59 59 59 61 62 62
27 28 27 27 26 25 24 26 26 26 24 19 21 19 21 25 29 35 31 33 36 38 41 43 44 43 49 48 50 51 51 50 51 52 56 56 56 57 58 60 60 61 61 62
28 26 27 26 26 26 25 28 25 26 23 20 22 20 21 32 29 30 34 32 35 37 41 43 43 43 47 50 51 52 52 52 52 53 56 57 57 58 58 59 59 60 61 62
29 29 27 26 27 27 28 24 25 27 23 18 18 20 19 23 28 30 35 32 35 37 41 43 43 43 45 49 52 52 53 53 52 54 55 55 54 53 55 56 58 59 61 61
26 26 27 27 25 24 22 20 19 19 19 20 24 21 22 25 27 31 35 33 34 36 39 43 43 42 44 47 51 52 53 52 52 53 54 55 52 53 54 55 58 59 60 61
23 22 25 25 25 23 20 20 18 14 14 13 26 22 23 30 35 38 37 35 35 36 39 43 43 43 44 46 51 53 52 51 51 52 53 53 52 52 51 53 57 58 60 60
25 23 27 25 23 24 22 18 19 16 23 20 22 27 34 38 39 39 36 35 35 37 39 43 43 43 44 45 48 53 53 50 50 51 52 52 52 51 51 51 53 57 59 61
26 23 25 24 24 24 22 22 16 19 15 16 20 25 29 30 34 40 39 35 35 38 39 43 43 44 44 46 48 53 53 50 50 49 51 51 51 51 50 51 52 54 55 55
26 26 26 27 29 24 24 25 27 19 20 17 18 25 33 34 39 42 40 35 35 37 38 41 43 43 43 45 47 52 52 49 50 48 50 50 50 50 50 50 51 52 53 54
26 26 24 31 33 34 26 25 28 23 19 25 23 24 35 41 44 44 42 35 36 37 38 41 42 43 43 44 47 51 51 48 48 48 50 50 49 48 49 50 50 51 52 53
27 24 21 22 37 37 33 35 32 33 33 31 27 25 37 43 41 43 41 35 35 37 40 41 41 42 43 45 47 50 50 48 48 49 50 50 48 47 48 49 50 50 52 53
32 24 22 20 21 36 33 38 36 31 30 29 32 30 34 40 40 42 40 35 35 36 39 40 41 41 43 45 47 50 50 49 49 50 50 49 47 47 47 49 49 50 51 52
26 23 25 22 21 32 27 33 36 31 29 28 29 34 33 37 40 41 39 35 34 35 38 39 40 41 43 45 47 49 49 49 50 50 50 50 47 46 47 49 48 49 50 51
33 25 25 24 25 25 25 29 36 33 34 35 32 33 39 43 46 44 39 34 34 35 36 38 40 41 43 45 46 48 47 48 51 50 50 50 46 46 48 48 47 48 48 49
29 34 31 25 33 31 28 26 34 35 36 34 31 33 40 44 45 43 43 35 35 35 36 37 40 41 43 45 46 47 46 48 50 50 50 49 47 46 48 46 46 46 46 47
31 34 36 36 36 28 32 36 35 34 36 37 36 37 39 38 40 41 44 38 36 35 36 37 39 41 43 45 45 46 44 48 49 50 50 49 46 45 47 47 46 45 45 46
38 38 36 35 31 34 37 39 37 36 35 38 36 37 38 41 42 40 45 43 40 37 36 37 39 41 44 45 45 44 43 47 49 50 50 50 46 45 47 46 45 44 44 44
42 40 36 32 31 30 35 40 42 38 33 40 39 39 39 41 37 37 42 45 43 45 37 37 39 41 43 45 45 43 42 46 48 49 50 51 47 46 47 47 46 46 45 44
37 36 35 31 28 33 37 41 40 34 33 41 41 40 41 40 39 41 42 44 45 46 41 39 40 40 43 44 45 43 42 44 46 49 51 51 49 47 47 48 47 47 45 45
36 34 33 32 30 29 41 41 37 39 40 42 43 43 43 42 43 43 42 43 45 45 43 38 39 40 42 44 44 44 42 43 45 49 51 52 50 47 46 47 48 48 46 45
34 36 35 34 33 37 43 42 42 41 40 43 42 43 43 43 43 43 43 44 44 44 41 37 38 41 42 43 44 43 44 43 44 49 51 52 52 50 48 46 47 47 48 45
38 39 36 35 37 39 42 42 43 43 43 47 45 45 45 44 45 45 45 44 44 44 42 39 38 39 41 43 43 43 44 43 43 47 50 52 52 51 50 46 46 47 48 47
37 39 37 35 37 40 41 42 43 46 46 48 47 46 47 47 47 47 47 46 46 44 44 40 37 38 40 42 42 43 44 43 44 46 48 50 52 52 52 50 47 46 48 46
41 38 36 34 37 38 39 41 44 46 48 48 48 48 49 48 47 49 47 47 46 46 45 43 39 40 39 40 41 42 43 44 44 45 46 48 49 52 52 52 51 44 42 42

GFSCGP_sfc_dewp_003.txt.gz
Dewpoint
31 28 27 28 28 26 25 25 25 25 25 24 24 25 26 29 31 32 34 36 39 41 44 49 52 53 54 56 57 56 57 58 58 57 57 61 59 60 62 62 61 61 62 62
28 28 30 29 28 25 24 24 24 26 25 25 26 25 27 29 31 33 35 36 38 41 43 48 51 53 54 54 55 57 55 56 55 56 59 58 60 61 62 61 62 62 61 62
28 27 29 27 27 26 26 25 27 25 26 25 25 24 26 27 31 33 35 37 38 40 43 47 50 52 52 52 52 55 56 56 55 58 59 61 62 61 60 61 61 61 62 62
28 28 27 27 26 27 27 27 26 27 26 22 24 22 27 26 30 33 34 36 37 40 43 47 49 50 52 52 52 53 54 57 55 59 61 62 60 59 61 61 63 63 62 62
27 28 27 27 27 28 26 29 27 27 27 25 23 23 20 29 27 29 35 37 38 40 43 45 47 47 51 53 54 56 56 57 57 60 61 58 60 60 62 62 62 63 63 63
28 29 28 26 29 28 28 27 27 28 25 22 22 21 18 22 27 29 33 38 38 39 41 45 47 47 50 53 54 56 58 56 57 59 60 60 58 58 60 60 60 62 62 64
28 27 27 29 27 27 28 28 23 24 24 20 25 22 23 27 29 30 31 37 38 39 41 45 46 45 48 51 53 55 56 54 56 57 59 59 58 59 59 60 61 61 62 62
25 24 27 27 28 26 27 28 22 21 18 18 25 21 19 31 34 40 39 40 38 39 41 44 45 45 46 49 54 54 54 54 54 56 58 58 58 54 55 61 61 62 62 62
25 22 26 26 26 27 24 23 26 24 24 19 20 25 31 35 37 39 39 39 39 40 42 44 45 46 47 50 53 56 56 54 53 54 57 57 56 57 56 59 62 63 62 62
29 25 25 25 25 26 27 25 23 22 20 21 18 24 24 27 28 38 41 40 40 41 41 44 45 47 48 50 52 56 57 54 52 54 56 55 55 54 56 57 59 60 59 58
29 27 27 26 27 23 23 24 26 24 21 20 22 21 34 34 39 43 43 41 40 40 40 43 44 46 47 49 49 54 57 53 53 53 54 55 54 54 55 55 56 57 58 56
29 31 26 25 29 29 26 25 28 22 25 24 24 22 33 40 43 46 45 41 40 40 40 42 44 45 46 48 49 52 57 52 52 52 53 54 53 53 55 55 56 57 57 57
33 32 27 24 36 38 27 27 29 32 33 27 21 22 36 42 42 45 44 41 40 40 40 42 43 44 44 46 48 50 55 52 49 50 52 53 53 53 55 55 55 56 56 56
37 35 29 23 24 30 32 32 29 30 26 23 24 23 32 39 40 43 45 41 39 40 41 41 42 43 44 45 47 49 53 51 48 48 51 52 53 53 54 54 55 55 55 55
37 31 29 24 24 28 27 28 32 30 27 26 26 31 30 36 40 42 44 42 39 39 40 41 43 43 45 46 48 50 52 50 49 49 51 53 52 52 53 53 54 55 56 55
37 33 30 24 23 23 22 23 27 31 28 30 26 30 37 39 44 43 41 39 38 38 39 40 42 43 44 46 47 50 52 51 51 50 50 52 49 49 53 53 53 55 55 55
36 36 31 25 25 22 25 22 24 30 31 29 27 31 39 42 43 44 43 40 40 39 39 40 42 43 45 45 49 50 51 52 51 50 51 51 49 48 51 50 51 53 56 56
41 41 34 30 32 27 31 31 26 27 32 35 31 32 40 38 43 43 45 42 42 41 40 41 42 46 47 47 48 50 50 51 49 50 49 49 46 47 50 50 51 54 54 56
32 39 42 39 34 29 36 38 30 31 31 38 35 34 37 39 42 42 45 45 45 44 43 44 44 46 47 47 48 49 49 49 48 48 49 48 45 47 50 50 52 53 53 53
39 40 35 42 34 27 30 40 41 37 31 40 40 39 40 41 34 34 47 45 46 46 45 44 44 45 48 49 50 49 48 48 48 47 48 49 45 47 50 52 52 51 52 51
34 38 32 33 37 36 38 41 41 34 33 44 44 43 43 41 41 46 47 47 48 49 45 45 45 46 50 51 51 49 48 48 48 46 48 50 48 49 52 54 53 52 51 48
25 30 29 36 31 28 40 42 37 45 47 45 46 45 47 47 45 46 45 45 47 48 46 43 44 47 50 51 51 49 50 49 47 47 47 51 52 46 49 54 53 52 52 51
31 27 28 31 28 44 45 45 49 49 45 45 46 46 46 45 45 44 45 45 45 48 48 42 42 45 47 50 49 49 50 48 47 48 50 52 53 49 48 52 53 50 52 47
25 39 36 35 34 39 43 45 45 44 44 46 45 47 47 45 45 45 45 46 46 46 47 44 43 44 46 49 49 49 49 46 46 49 52 52 53 52 50 47 48 47 48 46
18 31 37 37 38 40 42 44 44 43 46 46 46 45 45 45 46 46 46 48 47 47 47 44 43 44 45 47 48 48 48 47 49 52 52 52 51 53 51 49 46 45 51 46
36 30 32 33 38 41 41 45 45 45 45 47 46 47 48 47 46 49 48 49 49 47 47 46 45 45 45 45 45 47 46 48 50 52 51 50 48 51 49 48 48 42 41 41

GFSCGP_sfc_dewp_006.txt.gz
Dewpoint
32 28 27 27 29 27 24 24 24 26 26 26 27 26 26 27 26 29 32 36 37 39 41 46 49 50 49 49 52 56 56 59 57 57 57 60 61 60 64 63 62 62 62 61
30 28 28 27 27 27 27 27 27 27 27 27 26 24 26 27 26 29 33 37 38 40 41 46 50 50 49 46 50 55 55 56 57 57 61 61 60 59 59 62 62 62 61 62
27 25 27 27 28 28 27 27 28 27 28 26 26 25 25 26 26 29 34 36 38 40 42 46 48 50 48 48 49 52 55 57 59 63 64 64 64 61 64 62 63 63 62 62
26 24 26 28 28 27 26 26 26 27 26 21 26 22 24 25 24 26 32 36 38 40 42 46 48 49 48 47 50 51 55 58 59 62 60 62 63 59 61 65 65 63 63 62
26 25 28 27 25 25 25 24 27 27 26 26 24 23 22 20 23 21 22 34 38 40 42 44 47 47 44 48 50 55 55 57 61 62 61 57 60 65 64 64 63 63 65 64
25 26 28 26 23 24 25 26 28 28 25 24 22 20 16 18 20 22 24 34 38 39 41 44 47 46 44 48 50 53 54 55 59 60 61 61 60 61 62 63 61 61 64 65
26 25 26 26 23 26 26 28 23 25 23 21 23 19 20 22 21 24 27 30 39 40 40 43 45 44 44 48 50 52 51 53 54 57 59 59 61 62 62 62 62 62 62 64
21 20 26 27 22 25 25 27 21 22 21 19 24 20 19 21 26 33 36 39 41 40 41 43 45 45 42 46 51 51 51 51 52 54 57 58 59 55 60 63 63 63 63 62
21 20 23 26 23 23 25 25 26 25 24 21 19 22 25 25 27 33 37 41 42 42 42 43 44 45 43 46 51 53 52 50 51 53 56 57 57 58 58 64 64 62 63 63
26 24 23 25 24 23 24 25 24 24 24 23 19 21 20 21 25 38 40 41 42 42 41 43 44 46 43 46 51 55 54 49 52 52 53 53 55 56 58 61 62 61 61 60
25 27 26 24 26 22 23 24 26 25 22 21 22 21 26 24 31 35 41 42 42 42 40 43 44 44 43 46 48 54 54 51 50 51 52 54 53 54 56 57 58 59 59 59
26 28 26 24 24 23 25 24 28 23 27 24 22 20 25 30 35 40 42 42 41 41 40 42 43 43 42 46 47 51 54 50 46 48 50 53 52 54 55 56 57 59 60 59
28 27 23 22 29 29 24 24 26 30 30 27 21 21 28 33 37 43 44 42 41 41 40 42 43 40 40 44 45 47 52 50 44 44 48 52 53 54 55 57 58 55 58 58
36 30 27 22 26 26 27 22 24 28 27 25 23 24 25 30 34 40 43 43 41 41 41 42 43 40 40 43 43 46 49 48 43 44 45 50 53 53 55 56 56 54 52 54
36 31 26 21 18 23 24 22 23 26 27 25 24 23 26 28 31 35 44 43 40 39 40 42 43 41 40 43 44 45 48 46 44 44 45 48 53 52 53 53 55 56 54 51
37 30 27 23 18 18 20 22 24 25 25 25 24 25 28 29 28 37 43 43 41 39 39 41 43 41 40 43 44 46 48 46 46 46 46 46 47 50 52 54 56 56 55 52
34 31 29 25 20 18 22 21 23 26 26 26 24 26 27 28 34 38 42 42 42 41 39 41 43 43 42 43 46 47 48 48 47 46 46 46 45 47 51 50 52 55 57 58
37 35 30 23 24 23 23 23 22 23 25 26 26 27 27 28 34 35 39 42 43 42 41 42 44 46 44 43 45 47 47 47 45 45 46 46 42 43 48 50 53 57 59 59
38 37 28 29 28 22 26 29 23 24 25 26 27 26 25 28 33 34 38 42 44 46 45 43 44 47 47 44 46 46 46 46 43 43 44 45 41 43 47 49 54 57 58 58
33 38 30 32 33 25 26 29 30 29 24 28 30 31 29 29 32 29 42 43 44 46 47 46 45 47 48 46 46 47 46 45 43 41 43 44 42 44 46 50 54 56 56 54
29 32 32 32 36 28 32 29 36 30 28 34 34 36 35 35 36 36 39 45 45 47 47 48 48 47 52 49 47 47 46 46 44 41 41 45 46 46 50 53 55 55 54 50
28 30 27 32 30 27 36 37 33 36 47 39 41 41 41 43 42 42 44 45 45 47 47 47 47 48 50 49 48 46 47 46 44 42 41 45 49 43 47 54 54 54 53 52
25 27 28 29 29 44 42 38 44 40 38 40 42 44 44 44 43 43 44 45 45 46 48 45 46 49 51 50 48 47 48 46 44 44 44 47 50 46 48 53 53 49 53 45
28 30 30 32 32 34 35 42 43 44 41 41 43 44 45 45 44 43 44 45 45 45 48 46 46 47 50 50 50 50 47 45 43 46 47 49 50 48 47 48 49 45 46 44
23 25 28 30 33 30 30 32 38 43 45 43 42 41 42 42 42 43 43 44 44 44 44 47 46 47 48 50 50 49 46 45 46 49 48 50 48 51 48 47 45 43 51 43
30 29 22 22 30 33 33 33 31 42 43 43 40 41 43 42 42 43 42 44 45 45 46 47 48 48 47 48 49 48 45 46 51 52 48 47 45 48 45 44 43 41 40 41

GFSCGP_sfc_dewp_009.txt.gz
Dewpoint
25 27 25 26 27 25 25 25 23 24 25 26 27 28 28 30 28 27 28 30 35 38 39 44 49 50 49 50 55 55 55 59 59 57 59 64 65 59 61 64 62 62 62 61
26 27 26 26 25 25 26 25 24 25 26 28 29 29 29 26 26 27 28 29 34 39 40 44 50 51 50 51 53 54 54 57 60 60 62 61 63 62 59 63 63 62 60 62
24 26 26 23 25 25 26 26 26 25 27 28 28 26 25 25 26 26 27 31 35 40 41 45 49 51 50 49 54 54 55 58 61 63 63 63 64 63 65 63 61 63 61 61
23 23 24 23 24 24 25 25 24 25 27 24 25 21 25 25 23 24 26 30 34 39 42 45 48 50 50 48 53 54 56 59 61 62 60 63 64 64 66 64 65 65 62 62
18 21 22 23 23 25 24 24 24 26 27 26 24 23 24 24 21 21 23 27 35 40 42 45 47 49 47 47 52 55 57 59 60 62 62 63 64 64 66 66 63 65 65 63
15 19 21 21 23 25 25 23 24 25 26 23 23 22 21 19 20 21 23 27 37 39 41 44 47 48 46 46 51 54 57 57 59 60 61 62 62 63 64 62 63 61 65 65
17 16 21 24 25 25 22 25 21 24 24 23 23 21 24 23 19 21 24 29 37 39 41 44 46 45 46 47 50 53 54 55 55 58 58 60 61 63 63 64 61 61 64 62
16 16 20 24 26 22 22 24 20 23 22 19 24 22 22 22 21 24 27 35 40 41 42 44 46 45 44 47 49 50 52 53 54 56 58 59 60 61 61 61 63 63 61 64
17 18 19 23 24 23 22 22 24 24 23 18 21 24 25 21 23 28 31 38 42 43 43 44 45 46 44 47 50 52 52 52 53 55 58 58 59 61 64 64 65 62 64 65
23 22 19 21 24 23 22 23 23 22 24 24 20 22 21 24 23 34 37 41 43 42 42 43 44 47 43 46 51 53 52 50 52 53 54 55 56 59 60 59 61 62 62 63
22 26 22 22 26 21 18 19 25 26 22 21 22 21 27 25 27 31 38 41 41 41 41 42 44 46 41 45 47 53 52 48 50 52 53 54 54 57 58 59 60 61 63 62
24 28 25 23 23 25 22 21 26 23 27 23 23 22 26 28 26 33 36 40 39 40 40 41 43 44 40 44 47 50 52 46 47 49 51 52 53 55 58 59 60 62 61 62
28 28 27 25 25 26 24 21 23 29 31 28 21 22 24 28 29 32 35 40 38 40 40 41 42 42 39 43 45 47 50 47 44 44 50 53 53 55 57 58 59 60 60 61
38 33 30 23 26 24 25 21 23 27 27 26 23 24 27 29 29 34 36 40 39 39 41 41 42 41 38 43 43 45 48 46 43 43 46 52 52 54 56 56 56 56 57 59
36 34 27 24 20 21 23 21 19 23 25 26 26 25 26 27 29 31 38 40 40 38 39 41 43 41 38 43 43 44 47 45 42 42 44 52 52 52 55 55 55 53 53 53
39 34 29 23 20 19 22 23 22 20 21 24 25 27 27 27 26 30 37 39 40 39 38 40 43 41 38 41 42 44 47 44 43 43 43 48 49 49 52 55 55 55 52 51
33 33 32 26 21 18 20 22 22 23 21 23 24 28 27 27 28 30 35 38 40 40 38 40 43 43 41 41 44 45 47 45 43 44 43 43 48 48 50 51 52 53 56 56
39 38 29 26 25 23 21 21 21 23 24 25 26 26 28 27 29 29 30 38 40 41 39 41 43 45 43 42 43 46 46 45 43 43 43 41 42 47 49 50 52 57 58 58
38 39 28 28 26 22 19 21 21 23 24 28 27 27 27 27 28 30 30 38 41 43 42 41 44 46 45 43 44 45 45 45 42 41 43 41 38 44 48 50 55 58 59 60
32 40 35 28 28 21 23 22 24 25 23 28 28 29 29 28 23 26 34 34 40 43 44 43 44 47 47 46 46 46 45 44 42 41 42 42 38 43 47 53 57 58 58 57
32 35 32 25 31 23 24 26 28 25 27 34 30 30 32 30 29 35 35 37 41 43 45 46 45 48 52 50 50 46 45 44 42 39 41 43 43 46 52 58 59 58 56 55
26 32 29 29 25 24 27 28 28 35 35 35 32 32 34 34 33 34 37 42 43 42 44 45 45 48 53 48 49 47 48 46 43 40 40 43 46 44 46 57 57 55 57 56
27 28 29 30 28 38 33 34 40 38 37 36 37 35 35 35 35 35 38 41 42 43 44 45 46 48 51 51 48 49 50 45 43 42 42 45 47 45 49 54 55 51 56 48
31 31 30 33 37 36 36 37 39 37 36 37 36 39 39 38 38 39 41 42 43 43 45 45 46 47 50 52 50 49 47 44 43 44 47 48 48 46 50 49 51 47 48 45
33 34 32 32 31 35 34 36 37 37 37 42 41 38 38 39 40 39 41 42 42 44 46 46 46 48 49 51 50 49 47 46 48 51 49 51 47 50 50 50 47 44 51 44
31 36 29 30 35 35 33 34 33 37 39 40 39 37 38 38 38 39 39 43 44 43 44 46 47 47 48 49 50 49 47 48 51 52 48 46 45 48 43 45 45 41 41 39

GFSCGP_sfc_dewp_012.txt.gz
Dewpoint
20 27 26 27 29 23 23 23 23 26 25 27 28 30 28 30 30 32 34 36 39 41 44 48 51 54 55 58 60 63 63 65 64 64 65 65 66 66 66 66 63 62 62 62
16 25 25 26 26 23 22 23 24 23 23 23 25 26 29 29 32 32 31 35 38 43 44 47 52 55 56 58 60 62 62 64 65 67 67 66 65 64 65 66 64 63 62 63
15 15 21 23 25 22 24 25 26 24 24 24 26 27 29 28 29 28 31 34 38 44 44 48 50 55 55 57 59 61 62 65 66 67 67 66 66 65 64 64 63 63 63 63
13 12 15 24 23 23 25 24 24 24 24 22 25 24 30 27 28 26 26 33 36 43 45 48 51 54 56 54 57 61 63 65 65 66 65 65 64 63 64 62 65 64 63 63
12 13 14 23 23 23 23 23 24 25 25 26 24 23 25 28 27 26 25 28 38 43 45 46 50 53 53 54 58 61 63 65 65 66 66 65 64 65 66 64 63 63 62 64
12 11 16 19 22 23 22 23 24 24 23 23 24 24 24 24 23 22 21 28 38 41 44 47 50 52 52 51 56 61 62 64 65 65 65 63 64 64 64 62 62 63 64 64
14 10 12 18 20 23 22 28 22 24 21 22 23 23 27 29 23 20 22 29 40 42 44 47 49 49 51 51 56 58 60 61 62 63 63 64 64 64 63 62 61 63 63 64
15 11 12 16 20 21 23 28 22 22 21 20 25 23 23 24 24 23 23 34 42 42 45 47 49 50 48 50 55 56 58 59 61 61 63 64 64 66 62 62 63 63 63 64
17 13 14 13 19 21 24 24 24 23 21 19 22 28 28 26 23 23 27 39 45 45 47 47 48 49 49 52 55 58 58 58 59 60 63 63 64 64 65 65 65 62 64 64
23 21 17 13 18 22 26 23 22 22 23 24 20 22 21 26 24 29 38 41 46 46 45 47 47 50 49 52 56 59 58 57 58 60 61 60 63 63 63 65 65 63 64 63
25 29 21 18 21 21 23 22 24 26 22 23 24 22 36 32 32 39 41 43 46 45 43 46 46 49 46 50 51 57 57 55 57 58 59 61 62 62 62 63 62 63 63 63
25 29 26 20 19 23 25 25 27 24 28 24 24 24 33 35 31 34 40 43 42 43 43 43 45 47 43 48 51 54 57 52 54 55 57 59 61 62 63 63 64 63 61 62
27 29 28 26 24 25 25 25 26 34 35 31 21 23 33 31 28 33 39 41 42 43 42 43 44 45 41 45 49 50 54 51 50 51 55 58 61 62 62 61 64 63 61 62
37 32 30 26 25 27 28 25 22 27 29 25 23 24 30 30 28 31 37 42 41 42 43 43 44 44 41 44 46 48 52 50 49 48 54 57 61 61 62 61 62 62 63 61
37 30 30 26 22 22 23 22 22 24 26 25 26 25 28 32 32 33 39 42 40 40 41 44 45 45 41 46 47 48 50 49 49 47 52 57 60 61 61 60 60 61 62 61
40 31 30 24 21 22 21 22 23 21 20 23 25 28 30 32 32 32 39 39 38 40 40 42 44 44 41 46 45 48 50 48 47 49 50 53 54 56 61 61 60 59 58 59
39 34 32 27 23 21 23 23 23 25 24 25 24 29 30 29 29 32 41 41 41 41 41 42 45 45 44 46 49 49 50 47 47 47 47 50 52 52 57 58 58 59 61 62
40 39 32 27 29 25 24 25 22 25 26 25 25 27 30 31 33 28 36 40 41 42 42 44 46 49 48 47 47 50 49 47 44 46 44 46 48 50 53 56 59 61 62 62
39 39 32 30 28 26 21 23 23 27 29 29 25 25 26 29 30 34 32 36 43 46 45 46 48 51 49 48 48 48 48 46 43 43 45 43 46 51 52 55 60 62 63 62
34 39 32 33 28 25 28 22 23 25 26 31 31 32 32 31 26 27 38 34 44 46 47 46 49 50 49 50 50 50 48 47 44 42 44 42 42 51 53 59 61 62 63 62
31 34 31 31 33 26 27 22 26 26 30 35 34 37 37 36 35 48 44 40 46 46 47 48 49 49 50 51 51 50 48 48 46 43 44 45 47 53 57 61 61 62 62 60
29 31 31 33 32 25 25 23 25 41 50 42 39 39 40 43 43 42 41 43 45 44 45 46 48 51 52 50 50 50 50 50 46 43 43 46 52 46 53 60 60 61 61 62
32 32 33 32 33 47 41 42 46 46 44 38 40 39 39 39 37 36 41 45 45 45 45 45 48 53 53 50 50 50 52 50 46 46 48 51 51 50 55 58 59 57 60 57
35 40 37 38 38 34 35 38 40 39 40 39 40 40 39 39 38 37 38 44 45 44 46 46 47 51 53 51 50 51 51 48 46 49 51 52 51 51 54 54 56 54 54 53
36 41 40 39 38 38 34 43 37 38 39 38 37 37 38 38 38 39 38 43 42 44 47 47 48 50 52 53 51 51 50 48 49 51 51 52 51 51 54 54 54 52 55 51
36 39 38 39 43 43 41 45 48 41 40 39 41 39 41 40 40 40 41 44 44 44 47 48 51 52 52 52 52 51 50 49 51 52 50 50 49 49 51 52 52 43 44 42

GFSCGP_sfc_dewp_015.txt.gz
Dewpoint
24 19 17 24 21 25 23 23 24 26 26 25 30 30 31 32 31 31 33 35 38 41 45 49 52 52 52 53 55 56 57 56 58 60 59 60 59 60 62 62 61 60 60 60
15 13 14 24 24 24 27 23 23 24 25 31 30 30 31 33 31 31 32 34 37 44 45 48 52 51 51 51 53 57 55 57 59 60 61 61 61 62 61 61 62 61 61 61
13 13 14 23 26 25 26 26 24 23 26 26 27 27 29 32 31 32 32 34 41 43 45 48 50 51 51 51 54 55 56 58 60 60 61 61 61 61 60 60 61 60 62 61
12 12 15 18 23 24 23 27 25 24 26 25 29 23 28 28 29 30 29 35 41 42 46 48 51 51 51 52 52 56 57 59 60 60 60 58 58 58 60 60 61 61 62 61
14 11 13 13 19 21 22 26 24 25 26 26 25 24 25 29 29 29 28 32 42 44 46 48 51 52 52 51 54 55 57 59 59 60 59 59 59 60 60 59 58 59 59 62
16 16 13 12 13 19 24 25 25 26 25 25 26 26 23 28 28 25 27 37 42 43 46 49 51 52 51 52 54 57 57 58 59 59 60 59 59 59 59 58 58 59 61 62
17 14 14 12 13 15 24 23 22 24 22 24 24 23 24 29 31 24 36 41 42 44 46 49 50 50 49 51 54 55 56 55 56 58 59 60 59 59 59 57 58 58 59 60
15 14 14 13 11 16 17 23 21 21 24 22 25 22 24 30 29 30 37 40 42 44 46 48 49 49 47 51 54 54 55 55 55 58 58 60 59 60 59 59 60 59 60 60
14 14 17 14 12 14 19 23 23 23 27 22 23 28 31 28 27 28 40 42 42 45 46 47 49 48 48 50 51 53 55 53 56 57 57 59 60 60 60 59 60 60 60 62
22 18 16 14 12 14 16 26 24 26 20 20 23 26 30 27 25 35 42 43 45 46 47 47 48 48 49 50 50 54 54 53 54 56 57 56 59 60 60 61 60 60 61 60
19 25 23 15 14 11 15 20 25 23 22 22 22 26 31 26 33 38 42 44 44 44 46 46 47 48 49 51 51 53 52 53 52 54 53 56 57 59 61 60 61 60 61 61
17 27 21 23 16 15 19 24 26 21 25 24 25 27 28 37 40 40 43 44 45 43 45 46 47 46 48 49 51 52 52 52 51 53 52 55 58 59 60 60 60 60 60 61
17 18 24 24 23 20 19 24 24 29 29 27 25 27 33 33 37 42 42 43 43 42 43 44 46 43 45 48 50 51 53 50 51 53 51 55 57 57 59 60 59 60 60 60
31 19 16 24 23 22 18 24 23 29 27 25 28 25 33 31 33 40 42 41 41 41 42 43 45 42 44 45 49 51 51 48 49 52 50 55 56 56 57 58 60 60 61 60
33 17 25 20 23 24 21 24 24 23 28 24 26 28 30 29 31 39 41 40 40 40 42 43 44 41 43 44 47 50 51 47 48 52 50 53 55 57 57 57 58 60 60 60
33 23 19 21 22 20 21 23 23 23 24 27 25 25 31 34 32 38 40 39 39 39 41 43 44 41 43 44 46 49 50 46 47 51 51 53 53 55 57 55 54 57 58 58
33 38 24 19 19 21 20 23 23 24 25 23 21 25 30 33 30 34 39 39 38 39 40 42 44 40 42 44 45 49 50 45 46 51 52 51 52 55 56 55 55 55 57 55
31 33 34 21 21 18 25 27 26 25 25 26 26 27 30 30 33 38 40 40 39 39 40 42 44 41 43 45 46 49 46 44 45 48 50 50 51 53 54 55 55 56 57 56
32 33 35 26 22 25 26 27 26 27 25 26 25 28 28 29 32 34 41 41 41 40 41 43 45 44 46 45 48 48 44 43 43 45 46 48 49 51 53 55 55 57 57 56
33 36 36 31 24 18 26 28 28 30 25 31 30 29 28 31 26 30 37 41 43 43 43 45 47 43 44 45 48 47 46 43 42 43 43 46 49 50 51 56 56 57 57 57
32 35 33 32 29 26 27 31 31 22 26 33 31 33 33 30 34 34 37 42 44 44 44 47 47 43 43 46 48 46 48 44 43 43 43 43 49 50 53 57 58 58 58 56
35 33 32 29 30 23 29 28 25 29 37 36 36 37 36 36 39 38 43 44 45 45 46 46 46 44 46 46 46 46 48 47 44 43 44 42 49 50 56 57 58 58 58 56
37 40 39 37 31 37 37 36 40 41 34 36 38 40 40 41 39 39 36 45 44 45 45 46 46 46 47 47 46 47 48 48 45 44 45 45 47 49 57 56 57 57 57 57
39 39 41 40 40 38 40 44 46 41 37 39 41 41 39 38 36 37 43 44 44 45 44 46 48 46 46 47 46 47 50 49 46 45 48 47 45 51 55 56 56 55 55 55
39 39 42 41 40 41 41 43 45 49 47 41 39 40 39 39 37 37 44 43 43 45 45 47 49 48 47 47 48 49 49 48 46 48 49 45 44 51 53 55 55 54 54 53
40 39 38 40 37 41 39 38 49 50 49 51 52 42 41 38 38 37 40 44 44 46 45 47 49 50 49 47 48 48 48 48 48 49 49 46 45 51 51 52 53 43 45 45

GFSCGP_sfc_dewp_021.txt.gz
Dewpoint
21 22 29 27 27 25 25 26 26 27 27 25 26 27 28 29 30 30 31 32 34 37 42 48 48 50 53 54 54 54 56 56 56 58 57 57 57 58 58 59 60 61 60 59
20 16 23 31 29 28 26 23 23 25 27 25 26 25 26 29 28 32 32 33 38 45 49 48 48 51 53 54 54 54 55 56 57 58 57 58 58 58 59 59 59 61 61 60
13 13 19 27 27 27 25 22 21 22 27 29 28 27 28 28 32 32 34 34 39 42 48 48 49 51 53 53 55 55 55 57 59 58 58 58 57 58 58 57 58 59 60 62
10 10 17 19 24 18 17 22 21 23 25 22 29 24 27 28 29 29 28 29 34 45 48 47 48 50 52 53 55 55 57 58 58 58 57 55 55 55 56 56 57 58 60 61
15 11 11 16 17 18 18 23 26 27 28 27 27 25 26 28 27 28 28 29 40 45 48 48 48 49 49 53 54 56 57 58 58 58 57 56 55 56 56 56 56 57 59 59
13 16 11 14 20 21 19 23 26 26 25 23 24 26 25 25 27 28 29 39 43 45 48 48 48 49 50 52 55 56 58 57 58 58 56 55 55 54 54 55 56 57 58 58
17 15 16 14 12 17 16 17 17 20 21 23 24 25 25 28 30 30 28 38 44 47 48 47 47 49 50 53 55 56 57 56 57 57 57 56 55 54 54 55 56 56 57 57
16 14 16 15 13 12 14 17 21 18 22 22 26 24 26 30 30 32 31 41 45 48 48 47 48 49 49 53 55 56 56 55 57 57 56 56 56 56 56 57 57 57 57 57
16 13 20 16 15 12 12 15 18 20 25 22 24 26 28 32 32 36 41 43 45 47 48 48 49 49 50 52 54 55 54 54 56 57 57 56 57 57 58 58 57 58 58 60
22 14 17 16 16 14 13 14 13 19 19 20 23 23 25 27 31 40 41 42 45 48 49 49 49 49 50 52 53 55 54 53 56 56 56 57 57 58 58 58 58 57 57 58
23 21 22 19 17 14 13 13 17 13 20 21 20 23 29 27 34 38 40 42 45 47 48 48 48 47 50 51 52 54 53 54 55 56 55 57 57 58 58 57 58 58 58 59
32 21 20 17 18 18 15 12 14 18 21 20 23 22 29 29 31 38 38 42 45 47 48 48 47 46 49 50 51 53 52 53 53 55 55 57 58 58 57 57 58 58 58 59
34 28 19 16 21 21 14 14 13 16 26 23 20 22 27 34 33 38 40 42 45 46 47 47 46 46 48 49 51 52 52 52 52 52 56 57 57 57 56 57 58 59 59 59
33 33 25 15 17 20 17 14 17 14 13 17 22 22 30 35 37 40 41 43 45 46 47 47 46 46 47 48 51 51 51 50 52 51 56 56 55 56 57 57 58 58 59 59
30 28 32 29 18 18 22 16 13 18 18 19 20 22 28 35 38 41 42 43 44 45 45 46 45 46 47 48 50 51 51 50 51 52 55 53 54 56 58 58 58 59 59 60
31 26 31 30 24 18 16 21 14 15 18 22 25 23 28 35 40 42 42 42 43 44 45 45 45 45 46 47 49 50 50 50 50 52 53 53 54 56 57 57 58 58 58 59
29 29 22 27 24 19 17 16 19 19 23 22 23 25 30 33 39 41 42 42 42 43 44 45 44 44 45 47 48 49 50 50 50 50 53 53 55 56 54 58 57 56 54 55
28 27 27 25 26 15 18 18 17 23 23 27 25 25 30 31 39 41 42 42 42 43 44 44 44 43 44 47 48 49 48 50 49 49 53 52 54 53 53 55 54 53 53 53
30 27 25 28 25 20 20 26 17 22 21 28 25 26 29 32 37 40 42 42 42 43 43 44 45 43 43 46 48 49 47 49 49 49 51 50 54 54 54 54 53 52 52 52
32 28 25 31 26 17 25 32 28 27 20 29 29 29 30 32 30 34 42 42 42 42 43 44 45 43 43 45 48 47 46 49 48 49 50 50 53 54 53 54 53 52 51 52
29 29 27 27 28 31 38 38 39 22 26 45 34 29 30 30 30 33 42 42 41 41 42 44 44 42 43 45 48 46 45 47 48 49 49 49 52 53 53 54 54 52 52 52
32 33 29 29 31 27 40 39 33 40 43 46 43 32 30 29 29 34 41 41 41 41 43 44 43 42 43 46 47 45 43 45 47 48 48 48 50 52 54 54 54 54 52 51
32 35 34 36 38 38 39 37 39 39 38 45 49 49 35 31 31 35 41 41 41 41 42 44 43 42 43 46 46 44 43 43 45 47 47 47 49 50 54 53 54 54 52 51
37 40 37 36 41 39 38 37 37 39 38 39 47 51 45 31 33 34 41 42 41 41 43 44 42 42 43 45 45 44 43 41 44 44 46 47 48 50 54 53 54 54 54 52
37 38 37 37 39 38 37 36 37 39 38 38 43 50 50 35 34 36 40 42 42 41 43 44 42 42 43 45 45 45 43 42 43 43 43 45 47 49 53 54 54 54 55 54
39 37 36 36 40 40 38 38 39 39 38 38 40 51 50 46 35 39 40 43 43 42 44 44 43 43 43 44 44 46 45 43 42 43 42 43 47 50 52 54 52 42 46 45

GFSCGP_sfc_dewp_024.txt.gz
Dewpoint
20 19 25 20 21 20 19 16 19 19 25 25 25 26 27 28 29 29 30 31 33 36 40 44 48 52 53 55 55 55 56 57 56 57 57 58 58 59 59 60 61 61 61 61
19 16 19 24 24 23 23 21 23 23 27 26 26 26 28 28 28 29 30 30 34 39 46 48 49 51 53 54 55 55 56 56 56 58 58 59 59 59 59 60 60 61 61 61
8 10 16 26 25 26 25 24 22 22 26 26 25 22 24 27 31 31 34 35 36 39 45 47 50 52 53 54 54 55 56 56 58 58 58 58 57 58 58 58 59 60 61 61
9 9 14 21 25 25 22 28 27 27 26 21 26 24 24 26 29 30 29 30 31 41 48 48 51 52 53 53 55 55 56 58 58 58 57 56 56 55 57 58 58 59 59 61
12 9 8 15 23 28 23 26 27 26 24 25 26 25 27 28 27 28 29 29 31 45 48 48 50 52 52 55 54 56 57 58 58 58 57 56 55 57 57 57 57 58 59 61
13 17 10 11 17 25 24 22 23 26 25 21 21 25 21 27 27 28 30 33 43 47 48 48 50 51 52 54 55 56 57 57 58 58 57 56 55 55 55 56 57 58 59 60
16 13 15 14 18 21 18 17 16 16 17 19 23 23 21 29 30 29 29 31 44 48 47 48 48 49 52 54 55 56 57 57 57 58 57 56 56 56 56 57 58 57 58 59
18 15 15 15 13 18 17 17 16 12 19 21 23 24 26 29 29 32 32 35 46 48 47 47 48 49 51 54 55 56 56 56 57 57 57 57 57 58 57 59 59 58 59 59
19 17 18 14 14 14 17 18 19 17 24 22 24 26 27 29 30 32 35 43 46 48 47 47 48 49 51 54 55 55 56 55 57 57 57 57 58 58 59 59 59 59 60 60
21 17 17 15 14 13 14 17 16 17 15 18 22 24 23 26 26 37 41 42 45 48 47 47 48 49 51 53 55 55 55 55 56 57 57 57 58 59 59 59 59 58 59 60
28 20 20 17 15 12 14 14 16 14 22 19 19 23 29 27 28 35 39 42 46 48 47 47 48 49 51 53 54 55 54 54 56 56 56 57 59 58 58 59 59 59 59 60
32 26 20 16 17 16 12 13 16 12 14 20 22 21 29 30 29 36 37 42 46 48 48 48 48 48 50 52 52 54 54 54 55 56 56 58 59 58 57 59 59 59 59 60
32 29 20 17 18 20 14 13 16 23 23 17 16 19 28 32 35 35 38 43 46 48 48 48 47 47 50 50 51 53 53 53 54 54 56 57 58 58 57 59 59 60 60 60
33 30 29 19 19 19 15 14 13 14 15 22 16 21 25 32 35 39 40 43 46 47 48 47 47 46 49 50 51 52 53 53 53 54 56 57 57 58 57 59 59 60 60 60
31 26 29 28 28 29 22 16 15 12 13 15 20 22 25 29 33 38 40 44 45 46 47 47 47 46 48 49 51 52 52 52 52 54 55 55 56 57 58 59 59 59 60 60
34 26 28 23 25 27 26 21 16 15 14 14 20 20 25 31 40 41 41 43 44 46 46 47 47 47 47 48 50 52 52 51 52 54 54 54 56 57 58 58 59 59 60 61
31 28 24 20 23 25 21 22 20 17 16 18 20 18 30 35 39 40 42 43 44 45 46 47 47 47 47 48 50 51 51 52 51 53 54 54 56 56 58 58 57 57 56 59
29 27 25 22 28 19 23 22 21 19 22 18 21 24 29 30 38 41 41 42 43 45 46 47 46 47 48 48 49 51 51 51 50 52 53 54 56 54 57 56 55 54 55 57
30 29 24 24 28 26 22 34 30 21 19 26 25 24 28 32 40 41 43 43 44 45 46 46 46 46 47 48 49 50 50 51 50 50 53 53 55 54 55 55 53 54 55 55
31 31 26 28 28 21 33 37 38 38 17 40 45 33 30 36 35 36 43 44 44 46 46 46 47 46 46 49 50 50 49 50 50 50 52 52 54 54 55 54 53 53 54 54
31 32 27 25 25 29 36 37 38 20 26 39 41 47 43 33 33 36 43 44 44 44 46 47 46 44 45 49 50 49 49 50 50 50 51 52 55 54 55 54 54 53 54 53
34 32 28 28 28 28 37 36 33 36 39 39 39 40 45 44 36 37 42 44 44 43 45 46 45 45 45 49 49 48 48 50 50 50 50 51 54 54 55 55 54 53 53 53
32 35 34 35 36 40 39 38 39 38 37 38 39 39 40 49 47 34 41 44 43 43 44 45 45 45 45 48 48 48 48 49 50 50 50 50 53 54 55 54 54 52 52 52
37 39 37 36 39 38 39 40 38 37 38 38 38 39 41 50 48 33 41 43 43 43 44 45 44 44 45 47 48 47 47 48 49 49 50 50 51 53 54 55 54 53 52 52
37 38 37 35 39 38 38 38 38 38 40 37 38 40 49 51 48 34 39 43 42 42 44 44 44 44 44 46 47 47 46 47 48 49 49 49 50 52 53 54 55 55 54 51
39 36 36 36 39 40 38 38 39 39 40 38 39 41 50 50 46 37 39 43 43 42 44 44 44 44 45 46 46 46 44 46 47 47 47 48 48 50 53 53 52 42 48 46

GFSCGP_sfc_dewp_027.txt.gz
Dewpoint
19 16 19 19 20 21 20 21 20 17 19 20 22 25 28 29 30 32 33 35 38 41 42 44 47 52 55 57 59 61 61 63 61 59 60 60 60 62 62 63 64 64 64 64
16 15 17 21 20 18 17 16 17 18 19 24 25 25 28 30 29 29 32 34 37 40 42 48 50 53 55 57 59 60 61 62 61 61 62 63 64 63 63 63 64 64 64 64
14 14 14 16 20 21 19 17 17 19 25 26 27 25 25 25 30 28 30 37 39 41 43 49 51 53 55 57 59 60 61 62 62 64 63 64 63 62 62 62 62 63 62 64
13 13 12 14 18 22 21 22 20 21 23 22 25 22 26 25 26 28 32 37 38 38 47 50 52 54 56 57 58 60 61 62 63 64 63 63 59 58 61 61 61 62 62 62
13 11 11 14 16 22 21 22 23 23 26 27 24 22 23 29 26 27 26 34 39 41 48 50 52 54 55 57 58 60 61 63 63 63 63 61 60 61 61 61 62 63 64 63
15 14 11 11 16 22 23 24 27 27 25 23 25 23 22 20 23 24 26 33 42 47 49 51 53 54 55 56 57 59 61 62 63 63 62 61 60 60 60 61 62 62 63 63
17 14 13 12 12 21 25 24 21 21 21 24 23 21 23 25 25 29 30 34 44 48 49 51 52 52 55 56 57 59 61 62 62 62 61 61 61 61 61 62 61 62 62 63
17 15 14 12 12 18 24 25 20 19 17 17 22 17 18 28 28 28 33 36 45 48 49 50 51 53 53 56 57 58 60 61 62 61 61 61 61 61 61 62 62 62 63 62
20 17 18 13 13 15 21 20 21 19 25 18 17 26 30 32 33 35 34 38 45 49 50 50 51 53 54 56 58 59 60 61 61 61 61 61 62 63 63 63 64 63 64 63
25 21 18 15 12 17 21 22 19 18 12 11 18 25 19 29 32 34 36 41 46 49 49 49 50 52 54 56 58 59 60 60 61 61 61 61 62 62 61 63 62 63 63 63
29 26 20 16 13 12 16 19 20 19 16 9 11 16 34 32 35 35 39 43 47 49 48 49 49 52 53 55 56 58 58 58 59 60 60 61 61 61 61 63 62 63 64 63
31 32 22 17 16 15 15 20 21 14 20 15 19 16 32 36 35 37 41 44 47 48 48 48 49 50 52 54 55 57 58 56 58 59 59 61 61 60 61 62 62 63 63 62
37 30 21 20 19 19 16 16 21 24 24 19 10 16 29 33 34 35 41 44 47 48 48 48 49 50 50 53 53 55 56 56 57 57 58 61 61 60 61 62 63 62 63 63
38 30 28 17 20 23 18 15 16 20 16 15 13 11 21 27 31 37 41 45 47 48 49 48 49 50 50 52 52 53 55 56 56 56 58 60 61 60 61 62 62 63 63 62
38 28 27 26 26 28 27 16 14 17 17 17 15 15 20 24 30 38 43 45 47 47 48 48 49 50 51 52 52 53 54 55 56 56 57 59 60 61 61 61 62 62 62 62
34 29 28 25 24 24 25 26 17 16 16 17 19 22 21 27 36 39 42 44 45 46 47 48 49 50 51 51 51 53 54 55 55 55 56 57 59 60 61 61 62 62 62 62
31 31 28 22 23 24 22 24 24 20 17 17 16 21 23 26 32 38 43 44 44 46 47 48 49 50 51 51 52 53 54 55 55 54 55 56 58 59 60 60 61 62 62 62
30 29 28 23 28 19 23 34 25 25 21 21 20 21 22 22 26 33 41 43 45 47 48 49 50 51 52 52 52 53 53 54 53 53 53 55 56 58 59 59 59 60 61 62
33 30 28 23 26 26 31 37 35 27 27 39 36 23 23 26 32 33 41 44 46 49 50 50 51 52 53 52 52 53 53 53 52 52 53 53 55 58 58 57 58 60 61 62
31 32 30 27 23 19 36 38 37 39 27 38 40 41 46 45 23 22 37 44 46 49 50 50 51 52 53 53 53 53 52 52 51 51 52 53 55 57 57 58 58 60 61 61
30 33 28 28 27 28 38 38 38 30 31 39 40 41 42 43 33 46 48 47 48 49 50 51 51 51 53 53 53 52 52 52 52 51 52 53 57 56 59 58 59 60 60 60
32 30 27 28 26 26 39 38 33 37 40 39 40 41 42 43 44 45 48 45 48 48 49 50 50 51 53 53 53 51 52 52 52 52 51 53 57 54 56 58 58 59 60 60
33 37 35 34 31 40 39 40 42 40 39 39 41 41 43 44 45 46 48 48 48 48 49 48 49 51 52 53 52 52 53 52 52 52 53 54 57 55 57 57 57 57 59 57
37 39 37 35 37 38 38 39 39 39 39 40 40 41 43 45 50 52 52 49 45 47 48 48 49 49 50 52 52 53 52 52 51 53 53 54 55 56 57 55 54 53 55 54
37 39 37 35 37 37 39 38 39 40 38 38 40 42 44 48 49 50 50 49 43 46 48 49 49 50 49 51 51 52 51 51 52 54 53 53 53 56 57 56 54 52 55 53
39 38 36 35 37 39 38 38 39 40 40 40 39 41 45 49 51 51 50 46 43 46 47 48 49 49 48 49 50 51 50 51 53 53 52 51 50 53 54 54 55 43 48 46

GFSCGP_sfc_dewp_030.txt.gz
Dewpoint
24 15 16 19 24 25 25 26 26 26 26 25 24 24 25 28 30 31 32 33 33 34 39 42 49 51 53 57 59 60 61 64 61 60 57 57 55 58 60 61 63 63 64 64
19 15 17 17 19 20 22 24 25 25 25 26 25 25 28 30 31 32 32 32 33 35 39 42 51 53 56 58 59 61 62 64 62 59 59 57 58 59 60 61 63 64 63 64
18 16 13 13 17 19 20 21 24 23 24 25 25 25 28 30 31 31 31 32 31 30 40 45 51 55 56 58 60 61 63 64 63 63 61 63 62 61 58 60 60 62 63 63
18 16 14 12 12 17 20 20 20 21 21 18 23 23 30 31 32 32 31 31 29 34 40 47 52 55 56 58 59 61 63 64 63 64 62 62 56 55 58 58 61 61 63 62
18 16 15 14 13 14 17 19 20 22 22 24 23 23 28 31 31 31 31 31 29 38 41 48 51 54 55 57 59 61 63 62 64 64 63 60 60 58 59 60 62 64 65 63
19 16 15 15 13 14 15 18 22 24 23 22 25 25 27 29 32 32 32 25 27 43 47 50 52 54 55 56 58 60 61 63 63 64 64 62 62 60 59 60 63 64 66 65
21 17 15 14 14 16 17 23 19 22 22 23 26 26 29 33 29 31 27 26 40 46 49 51 52 52 54 56 57 58 61 62 63 63 62 62 62 62 62 62 63 63 65 64
17 18 17 14 15 16 19 24 17 19 22 23 27 26 27 28 30 31 27 27 41 46 49 51 51 53 53 55 57 57 59 60 61 61 61 62 63 60 61 62 63 62 65 61
17 19 17 15 13 16 20 20 21 24 25 19 22 26 27 27 25 24 25 27 41 47 50 51 52 53 54 56 57 58 58 58 60 60 61 62 62 63 61 63 65 67 63 61
27 25 20 15 14 14 20 22 22 22 24 22 19 20 22 24 24 27 34 33 39 48 49 50 52 53 54 56 58 58 57 58 59 60 60 60 61 61 62 64 63 63 64 61
31 28 24 18 16 14 16 20 23 25 21 22 18 16 26 27 27 33 34 37 45 48 48 50 50 52 53 55 55 56 56 58 59 59 60 60 61 61 62 64 62 63 64 61
31 31 27 19 17 16 17 20 25 19 24 19 16 14 31 32 35 32 33 42 46 47 48 48 49 52 52 54 54 54 56 55 57 57 58 59 61 61 63 62 61 63 62 61
36 30 26 23 18 18 18 19 24 25 27 24 15 14 26 33 34 35 40 43 46 47 47 48 49 50 51 53 52 51 54 53 54 54 56 60 61 61 62 62 62 63 62 61
38 34 29 20 18 17 17 17 21 24 20 19 16 14 24 29 31 36 42 45 46 47 48 47 48 49 51 52 49 50 52 53 53 53 55 58 60 61 61 62 62 62 61 61
37 29 29 27 26 26 25 15 15 20 21 18 16 15 16 27 29 36 41 45 45 45 46 48 48 49 51 51 49 49 51 52 53 52 54 58 60 61 61 61 61 62 62 61
36 33 30 26 24 24 23 22 16 16 18 18 16 18 20 21 20 30 41 43 44 45 46 47 48 49 51 50 48 49 50 52 52 52 53 57 58 59 61 62 61 62 62 61
36 33 30 23 22 23 22 23 21 18 18 19 17 21 21 25 24 31 37 43 43 45 46 47 49 50 52 50 49 50 50 52 52 51 52 56 58 58 60 60 61 62 62 62
32 34 31 23 24 21 29 31 24 23 20 20 21 21 21 24 26 26 29 39 43 45 47 48 49 51 53 51 49 51 50 51 50 50 50 55 56 56 59 60 61 63 63 62
31 33 34 25 24 20 28 36 32 25 28 37 34 25 21 22 26 28 30 33 41 46 48 49 50 52 54 51 49 49 49 49 49 49 49 53 54 56 57 57 60 63 65 63
27 32 33 29 24 19 36 38 38 38 31 39 40 40 40 40 30 31 47 47 40 45 49 50 51 52 54 52 51 50 49 48 47 48 48 50 53 55 56 57 61 63 64 62
27 30 28 28 27 31 38 38 38 32 35 42 42 42 43 42 40 48 47 47 48 46 49 51 52 52 55 52 52 50 49 48 47 47 48 49 55 56 57 59 62 63 61 61
31 29 27 28 27 29 40 39 37 41 43 42 43 44 45 46 46 46 46 46 47 47 48 51 51 52 55 53 51 49 49 49 47 47 48 49 56 53 56 58 62 62 62 61
36 38 36 31 38 40 40 41 41 42 42 42 42 44 45 46 47 47 49 49 48 47 48 49 50 53 54 53 51 49 50 49 47 48 50 51 54 55 55 57 60 60 62 58
36 39 38 37 37 37 39 39 40 41 42 42 42 44 46 47 48 49 50 50 49 45 48 49 50 51 53 53 51 49 50 48 48 50 52 52 53 55 57 53 54 55 57 55
38 39 38 36 37 40 39 40 39 41 42 42 43 42 44 47 49 50 50 50 49 45 47 49 50 51 52 52 51 50 49 47 50 52 52 53 51 54 56 55 51 49 56 51
40 38 38 38 36 38 39 39 40 41 40 40 42 42 43 45 49 51 52 52 50 46 46 48 51 51 50 51 50 50 49 48 51 52 52 51 48 52 51 54 54 43 46 46

GFSCGP_sfc_dewp_033.txt.gz
Dewpoint
26 21 15 16 19 22 22 23 24 26 27 27 28 29 30 29 27 27 28 30 34 36 37 37 41 52 53 56 61 62 62 68 66 62 59 58 57 59 57 59 61 63 63 64
23 21 18 14 14 17 18 20 23 26 27 27 28 27 28 29 29 29 30 33 35 36 36 35 47 53 55 59 61 62 62 66 66 62 63 58 58 55 58 58 62 62 63 66
19 21 19 14 14 14 17 20 23 25 27 27 27 27 29 28 29 29 29 31 34 36 36 36 49 55 57 59 61 62 64 65 66 66 63 62 61 61 58 58 60 62 63 64
19 17 17 17 14 13 16 18 20 23 24 22 26 22 26 26 26 28 31 33 35 35 35 34 51 55 57 58 60 63 64 65 63 65 65 66 58 55 56 59 57 61 62 62
16 18 15 17 16 14 15 17 21 23 23 23 21 19 22 23 24 28 32 34 36 35 32 40 50 55 56 59 60 63 64 63 64 64 64 61 60 55 57 57 61 64 65 64
14 16 18 16 17 16 14 15 20 23 21 20 22 21 21 23 26 29 32 34 34 32 33 45 51 55 56 58 60 62 63 63 64 63 63 64 61 59 58 59 60 64 68 66
11 14 17 18 16 17 16 19 15 18 18 20 20 21 25 26 28 31 33 34 30 29 44 49 53 53 56 57 59 60 61 63 63 63 62 62 62 62 62 62 65 64 66 65
6 7 16 18 16 17 17 19 14 17 18 16 20 22 23 31 32 33 34 31 28 42 46 50 52 54 54 57 58 58 61 61 61 61 61 61 62 59 60 63 65 65 63 66
18 5 12 17 17 16 17 16 19 19 19 14 18 25 30 32 30 30 30 33 32 45 49 51 52 54 55 57 58 60 60 60 60 59 60 61 61 62 61 63 66 65 64 61
31 23 9 15 17 17 17 17 17 18 19 18 19 23 24 25 25 28 26 26 33 46 49 50 52 54 55 56 58 59 59 59 58 58 59 59 64 61 60 64 64 63 64 59
31 34 27 13 19 16 14 15 18 21 18 17 20 24 28 26 28 29 26 29 33 46 48 50 51 53 54 56 56 58 56 56 57 57 58 60 63 60 60 64 62 63 63 60
29 35 31 22 19 17 16 18 22 20 24 20 23 23 24 27 28 31 33 33 37 47 48 49 50 52 53 55 56 55 56 55 56 56 56 58 63 58 62 62 63 63 62 59
35 33 26 31 28 20 17 16 22 27 28 26 19 22 22 29 33 31 35 38 45 46 47 48 50 51 52 54 53 52 53 53 54 53 54 58 60 62 62 62 62 62 62 58
39 34 32 32 28 18 18 16 19 26 24 24 22 19 23 30 34 36 41 44 45 46 47 47 49 50 52 52 50 50 51 52 53 51 54 57 62 61 62 62 62 63 62 60
40 31 26 30 36 31 16 16 16 22 24 23 24 21 22 31 34 37 42 43 44 44 46 48 49 50 51 51 48 49 50 51 52 51 53 57 62 61 61 60 61 62 62 59
39 34 29 24 32 32 21 16 16 18 23 23 20 21 20 26 24 33 39 42 43 44 44 47 48 50 51 50 47 49 50 50 51 52 53 56 60 58 61 61 61 62 61 61
34 36 28 30 31 30 21 21 18 19 22 22 20 20 21 21 23 28 39 42 42 44 44 47 48 50 52 49 48 49 50 50 51 51 54 55 59 58 62 60 60 61 62 63
32 33 33 26 31 30 24 25 22 18 19 21 22 23 21 23 27 29 35 41 42 44 45 48 48 51 53 50 47 50 49 49 49 50 52 55 55 57 60 62 62 63 62 63
29 31 34 31 31 29 31 30 24 23 20 25 23 22 21 23 25 32 44 43 43 45 46 48 49 52 53 50 48 49 48 47 48 48 51 53 53 57 59 60 63 65 62 64
26 31 35 32 33 26 41 35 37 36 33 40 38 37 39 37 25 42 47 46 48 44 47 49 50 52 53 51 49 49 48 46 47 47 48 52 53 55 56 59 64 65 65 64
24 30 29 30 30 36 39 38 37 29 39 42 41 42 42 41 41 47 47 46 47 48 47 50 51 52 55 51 50 48 48 46 46 47 46 51 53 56 58 59 65 65 63 63
27 29 28 29 30 35 40 39 37 43 43 43 43 44 44 45 46 46 45 46 45 47 46 49 51 52 55 51 49 48 49 47 45 47 46 50 55 53 57 60 63 64 63 62
35 37 37 36 38 43 40 41 42 43 43 43 44 44 45 46 46 47 47 48 47 46 47 48 50 53 55 51 49 48 49 47 44 48 49 51 55 53 56 58 61 61 62 57
39 40 37 37 40 39 40 40 40 42 43 43 44 44 44 45 47 48 49 48 48 46 48 48 50 52 54 52 49 48 48 46 45 48 51 52 55 53 55 53 57 56 55 51
39 41 37 38 39 39 41 41 40 41 42 41 42 44 44 45 46 48 49 50 48 48 46 49 50 52 53 52 49 48 47 46 48 50 51 52 52 55 55 52 52 52 57 51
39 38 38 37 40 39 37 39 40 40 41 40 41 43 44 43 45 48 50 52 51 48 46 48 50 51 52 51 48 46 46 46 51 52 49 49 49 52 54 52 50 43 45 46

GFSCGP_sfc_dewp_036.txt.gz
Dewpoint
20 21 19 19 20 20 24 25 24 26 26 27 28 29 29 32 32 32 35 35 36 37 39 44 50 60 60 62 66 69 69 71 69 68 66 65 63 66 65 66 66 66 66 66
19 20 23 19 16 15 16 20 22 24 23 24 26 27 30 32 32 32 34 34 36 37 42 45 52 60 62 64 67 68 68 71 69 68 68 65 65 63 64 65 67 66 66 67
18 17 20 20 17 15 16 17 20 20 21 22 23 25 30 30 32 32 33 35 37 38 37 39 50 60 61 63 65 66 68 69 69 68 68 70 68 68 66 65 65 66 65 66
17 18 14 17 19 16 17 14 14 17 18 19 21 21 30 31 31 32 33 34 35 36 39 43 51 60 61 62 63 65 68 68 68 70 68 68 65 63 64 65 65 67 65 65
7 15 17 14 16 18 17 14 15 16 18 22 19 21 25 28 27 28 31 32 34 37 40 44 56 59 59 62 63 65 67 67 68 69 67 67 67 66 65 64 65 66 67 65
7 7 9 17 14 15 18 16 17 17 17 19 23 22 22 24 28 27 30 31 32 37 39 43 56 58 59 61 63 65 66 67 67 67 69 68 67 66 65 65 65 65 66 67
16 10 7 8 14 16 16 23 18 17 16 18 21 21 24 28 26 27 30 32 35 39 38 52 55 56 59 60 63 64 64 65 66 66 66 66 66 66 66 65 66 65 66 65
25 21 8 9 12 16 16 21 17 16 15 15 18 20 22 28 27 30 33 35 38 38 49 53 55 57 57 60 62 62 63 64 64 64 65 66 66 64 66 67 66 66 66 66
26 23 21 7 12 15 17 15 20 21 17 13 15 21 26 27 28 31 31 36 39 47 52 53 54 57 58 60 62 62 63 63 63 64 65 65 66 66 66 67 67 66 66 65
26 25 25 25 6 13 18 17 17 19 18 18 15 20 20 30 31 31 34 36 39 49 51 52 54 57 58 60 62 63 63 62 62 63 63 62 65 62 64 66 66 66 66 63
28 30 28 27 13 11 16 15 17 22 17 17 18 18 29 35 33 31 34 34 39 48 50 52 53 56 57 59 59 62 61 61 61 62 63 64 64 62 65 66 65 65 66 63
30 34 28 25 23 15 18 17 20 18 23 20 18 19 32 30 28 32 33 31 43 48 50 51 53 55 56 57 59 60 60 58 59 60 60 63 62 64 65 65 65 65 64 62
37 31 26 25 27 30 25 18 22 26 31 24 16 20 30 28 28 32 35 32 45 49 50 51 52 53 55 56 57 55 57 57 57 56 59 62 64 64 64 64 64 64 64 62
37 34 29 28 32 38 32 22 19 23 22 21 21 23 25 27 32 35 39 44 46 48 50 50 52 53 54 55 53 53 54 55 56 55 58 63 64 64 64 64 65 64 63 62
38 33 30 27 31 36 37 34 19 19 24 23 24 22 25 31 35 41 46 47 47 47 48 51 52 53 54 55 53 52 52 53 55 54 59 63 64 63 63 63 63 63 64 62
38 34 34 28 25 33 34 32 30 16 20 24 26 26 34 38 36 41 44 45 45 46 47 50 51 53 54 53 50 52 53 53 54 55 59 62 61 62 63 62 64 64 63 62
30 36 33 26 27 30 29 30 30 25 20 25 25 32 34 33 27 39 43 44 45 46 47 49 51 53 54 52 52 53 53 53 53 54 58 60 60 61 62 62 62 63 64 64
29 30 34 30 32 24 31 29 27 21 22 26 27 27 28 29 31 42 42 43 45 46 47 50 51 55 56 52 51 53 52 51 51 53 55 57 58 60 61 63 63 64 64 63
29 29 33 31 31 31 33 36 30 23 29 37 31 24 22 27 43 46 46 48 47 49 50 51 52 55 56 52 52 52 51 50 50 51 54 56 58 60 61 62 64 63 63 63
24 30 34 32 31 30 41 41 40 35 36 41 40 38 40 39 29 44 47 48 49 53 51 51 53 55 56 54 53 53 51 49 49 49 53 53 58 60 61 64 64 65 65 64
23 30 30 30 33 35 42 42 41 33 39 43 43 43 44 43 45 49 47 48 50 50 51 53 54 55 57 55 54 52 51 49 50 48 52 54 58 61 62 64 65 65 64 63
34 30 30 28 30 31 41 41 41 45 48 45 44 44 44 45 44 46 46 49 49 48 50 51 53 57 57 54 53 52 53 50 49 48 50 55 60 57 60 64 64 64 64 63
35 38 37 39 39 45 47 44 46 44 43 43 44 44 45 45 46 46 47 49 49 48 51 50 53 57 57 53 52 52 54 50 48 50 53 57 58 59 61 63 64 62 63 61
38 39 39 40 39 43 46 45 42 43 42 42 43 46 44 45 46 48 48 48 47 47 48 51 53 55 56 54 52 53 52 48 48 53 55 58 57 58 59 61 62 60 61 62
38 40 37 38 40 41 39 41 39 41 41 41 41 43 44 44 45 47 48 49 48 48 47 51 52 55 56 53 52 52 50 49 51 55 55 58 56 58 58 59 58 59 53 57
39 37 37 35 37 37 36 37 39 40 41 40 40 41 44 43 44 46 48 51 51 49 48 50 54 56 55 53 51 50 48 50 54 55 54 54 55 56 54 55 54 43 44 43

GFSCGP_sfc_dewp_039.txt.gz
Dewpoint
18 16 19 19 20 24 23 27 26 27 27 26 25 26 27 29 30 29 29 35 38 37 37 37 42 48 55 59 62 64 67 68 68 67 66 64 63 62 61 62 61 64 65 65
21 15 17 21 19 19 21 19 18 23 26 25 25 25 27 28 27 27 28 31 37 37 38 40 44 55 56 60 63 64 66 67 67 67 65 63 62 61 61 61 62 63 63 63
20 20 18 19 20 19 17 17 16 16 19 19 19 20 22 24 28 30 33 33 36 37 36 37 48 56 59 61 62 62 65 66 66 65 64 64 63 62 61 61 62 63 63 63
9 13 20 17 17 19 17 17 16 16 18 16 19 16 18 20 22 25 26 29 34 35 39 38 52 58 60 61 62 64 66 65 65 63 63 61 59 58 59 58 62 63 62 62
7 8 12 17 16 17 18 21 17 18 16 15 15 18 16 25 26 30 31 30 34 34 36 37 54 58 60 61 63 65 65 64 64 63 63 62 60 61 59 60 61 62 62 63
10 9 7 6 7 17 15 18 19 18 16 14 15 16 14 16 19 27 29 30 30 30 33 52 57 59 60 62 64 64 64 63 63 63 63 60 59 60 60 60 61 61 62 62
15 13 9 7 6 8 13 13 13 16 15 14 15 17 17 24 24 28 28 30 32 35 42 55 57 58 59 62 63 63 63 62 62 63 62 61 60 59 58 60 59 60 61 61
24 24 24 20 9 7 8 14 13 14 15 14 16 15 18 24 26 25 25 27 33 34 53 55 56 57 59 62 62 62 63 62 62 61 60 61 60 60 61 61 61 61 61 61
26 21 22 19 18 10 6 7 15 13 16 16 15 16 17 18 19 23 26 33 34 51 53 55 56 57 60 61 61 62 62 62 62 61 61 60 61 61 61 61 62 61 62 62
25 23 21 14 17 25 23 12 16 13 12 14 16 14 16 17 22 25 32 32 48 52 53 55 55 58 59 60 61 62 62 61 61 61 60 60 60 60 61 61 61 61 61 61
24 27 24 24 21 25 21 9 10 17 13 14 16 17 20 23 32 28 34 34 50 51 53 54 56 58 59 59 60 61 61 60 60 60 59 60 60 61 61 61 62 61 60 60
35 34 30 27 26 26 26 14 10 14 17 16 19 17 20 27 33 32 33 37 49 50 52 53 56 57 57 58 60 60 60 59 59 59 59 61 61 61 61 61 61 61 60 60
33 30 27 25 25 26 27 29 21 18 19 16 13 19 19 24 26 32 31 45 49 50 52 53 54 55 56 57 58 59 57 57 57 58 60 61 60 61 60 61 62 62 61 60
38 30 29 26 28 32 33 33 34 33 20 17 18 17 18 26 30 33 39 47 48 50 51 52 53 54 55 57 56 56 55 56 56 58 59 60 60 60 60 60 61 60 60 61
37 30 30 30 31 29 32 29 30 30 32 21 17 20 16 26 39 41 43 47 48 49 50 51 52 54 55 55 53 54 54 55 55 58 60 60 61 60 61 60 60 61 60 60
39 30 32 33 33 27 29 27 29 29 30 31 21 19 28 42 44 44 45 46 47 48 50 51 52 53 54 53 52 52 53 54 53 59 61 61 60 61 60 60 61 61 60 60
33 33 35 30 29 30 26 25 25 28 29 31 23 25 37 41 45 45 45 45 47 48 49 50 52 53 53 50 50 52 53 52 54 59 60 60 60 60 60 61 61 61 59 59
28 27 34 33 31 23 22 27 32 34 30 32 29 33 40 43 48 49 46 45 46 48 49 50 52 53 51 51 51 53 52 51 53 58 58 59 60 60 61 61 61 60 59 59
29 28 33 31 32 33 31 40 42 42 40 44 35 34 41 44 44 45 50 48 47 48 49 50 53 53 50 50 52 51 50 50 51 57 57 58 59 60 61 61 60 60 60 60
25 30 33 32 29 28 37 39 40 44 40 48 44 46 46 44 42 45 50 51 49 50 50 52 54 52 50 50 51 50 49 49 50 54 57 58 59 60 61 61 60 61 60 60
29 32 30 31 32 35 37 41 44 39 41 50 45 46 46 45 45 46 51 52 53 53 50 53 53 52 50 50 51 50 49 48 50 52 57 58 59 61 61 61 61 61 61 59
33 34 33 33 31 29 43 42 41 46 49 46 44 45 46 47 47 47 48 52 53 55 53 53 53 53 52 51 50 51 49 48 50 51 56 59 60 61 61 61 61 61 60 57
34 37 33 33 34 43 44 44 47 48 45 41 42 44 46 46 46 48 48 50 52 55 52 53 54 52 52 50 50 52 50 49 49 51 56 57 58 61 61 61 61 61 59 57
37 40 39 37 37 40 44 44 45 41 41 40 41 42 43 45 45 46 49 50 49 53 55 55 55 52 51 50 50 53 51 49 50 55 55 57 57 59 61 62 62 61 60 58
39 40 37 39 39 40 40 42 43 40 39 40 40 40 41 43 44 45 46 48 52 50 53 56 54 53 51 50 50 54 49 49 52 55 54 57 57 57 60 56 58 59 60 59
38 37 36 35 37 37 37 38 39 40 38 39 40 40 40 41 44 44 45 48 50 52 53 54 54 55 51 50 50 53 48 51 53 54 54 55 55 55 55 51 50 43 42 48

GFSCGP_sfc_dewp_042.txt.gz
Dewpoint
19 13 15 16 20 23 25 25 27 29 30 29 28 28 28 29 29 30 30 30 31 33 36 39 37 41 52 56 58 61 65 66 67 65 65 62 61 61 61 62 63 64 64 64
16 14 14 17 21 21 21 21 23 23 21 25 28 28 28 28 28 28 29 30 31 34 38 39 40 52 55 57 61 64 65 66 66 65 64 62 61 60 60 61 61 63 64 64
21 19 17 15 17 19 19 18 20 22 21 18 17 17 19 21 23 24 26 32 33 33 34 37 43 53 58 60 62 64 65 66 66 65 63 62 61 61 60 60 60 62 63 63
10 11 13 18 14 17 17 21 19 19 18 14 16 12 16 17 17 19 22 25 27 31 35 38 41 55 58 61 62 65 66 65 65 63 62 61 59 59 59 59 61 62 63 62
11 10 12 12 14 19 16 21 21 21 19 17 16 15 13 20 19 21 22 28 28 27 35 37 47 55 59 61 62 65 64 64 63 62 61 60 58 58 59 61 61 61 61 62
12 12 9 7 8 8 11 18 19 19 19 16 16 15 14 14 15 17 28 30 28 29 31 43 55 59 60 63 64 64 63 62 62 62 61 59 59 59 59 59 59 60 60 61
15 12 12 11 9 9 9 10 13 13 16 15 17 16 15 21 22 20 20 24 29 31 47 57 58 59 61 63 63 62 62 61 62 61 61 60 58 59 59 59 59 59 59 60
23 22 26 25 17 9 7 9 13 10 15 15 17 16 15 18 17 17 18 23 28 29 53 56 58 59 61 62 62 62 62 61 61 60 60 59 59 59 60 59 60 60 60 60
25 23 23 20 17 17 16 7 8 12 14 13 17 18 19 17 16 17 17 26 29 40 55 57 58 60 61 62 62 62 61 61 60 60 60 59 61 59 59 60 61 60 60 61
26 22 23 21 20 16 20 22 10 12 12 11 15 18 18 19 19 20 22 21 40 54 55 57 58 61 61 61 62 61 61 61 60 60 59 59 59 60 61 61 60 60 61 60
26 26 23 27 20 13 24 22 17 13 14 13 12 15 22 20 22 23 25 29 52 54 55 56 59 60 60 61 61 61 61 61 60 59 58 58 59 60 60 61 61 60 59 60
34 32 28 22 23 24 28 26 25 13 9 17 14 14 21 21 22 25 31 50 52 54 55 57 59 59 60 60 61 60 60 60 59 58 59 59 60 60 60 60 60 59 59 59
33 28 22 21 25 30 28 31 33 31 14 10 13 15 18 21 22 20 37 50 52 53 55 57 58 58 59 59 60 60 59 59 59 58 59 60 60 60 60 60 61 60 60 59
39 32 27 21 24 28 28 30 30 31 28 14 12 14 17 18 17 18 41 49 52 53 55 56 57 57 58 59 59 59 57 57 58 59 59 59 59 59 60 60 60 60 60 60
38 31 30 30 31 30 30 30 28 28 29 29 26 28 24 22 16 18 42 49 51 52 54 55 55 56 57 58 58 57 56 56 57 58 59 59 60 60 60 60 60 60 59 60
36 31 32 31 29 30 30 31 30 27 27 28 29 30 31 30 41 42 47 49 50 52 53 54 54 55 56 56 56 55 55 55 57 59 59 60 59 60 59 59 60 59 59 59
34 34 30 25 32 31 28 28 28 25 28 30 28 29 31 42 46 47 47 49 50 51 52 53 54 55 55 54 54 53 54 55 58 59 60 60 60 60 59 60 60 59 58 58
29 29 30 27 31 23 27 40 41 41 34 32 30 30 33 44 52 52 51 48 49 51 52 53 53 54 54 53 52 53 53 57 58 59 60 59 59 59 60 60 59 58 57 57
31 29 29 28 30 32 33 39 39 38 38 46 47 44 43 50 51 50 52 52 49 51 52 53 54 53 51 51 52 52 51 57 57 58 59 59 59 60 60 59 58 58 58 57
30 30 31 29 28 26 35 39 41 41 37 48 48 47 47 49 47 48 52 53 50 50 52 52 53 52 50 50 52 50 49 55 56 57 58 59 59 60 60 59 59 58 58 60
31 31 29 29 30 35 39 39 41 37 40 47 48 48 48 49 51 50 53 55 54 50 52 53 52 50 49 51 50 49 49 50 55 57 57 59 60 60 60 59 59 59 58 58
32 32 33 33 32 28 40 39 37 42 46 49 48 45 48 49 51 51 54 54 55 52 53 52 50 49 50 51 49 48 48 49 52 56 57 59 60 61 61 60 59 59 57 56
33 36 32 32 33 40 42 42 44 46 47 47 48 43 46 46 50 50 53 55 53 55 55 52 49 49 49 50 49 48 48 49 52 57 58 59 61 61 60 60 59 58 56 57
38 40 37 36 39 39 42 44 44 46 46 48 46 41 46 44 49 51 50 52 55 54 55 54 52 49 49 50 50 48 49 49 55 57 58 59 60 59 60 61 60 59 56 55
37 38 36 37 39 38 42 42 43 45 44 44 39 38 41 42 46 48 49 50 52 53 56 57 53 52 49 49 50 49 49 50 55 57 57 58 59 59 59 59 59 60 58 56
38 36 35 33 36 37 37 39 41 44 44 43 39 38 39 41 44 45 46 52 54 53 54 56 54 53 52 50 50 51 49 52 54 55 57 57 58 59 58 55 51 42 45 49

GFSCGP_sfc_dewp_045.txt.gz
Dewpoint
18 14 16 19 22 24 25 25 26 28 29 30 29 30 30 31 30 29 30 30 32 34 35 35 36 41 42 44 46 46 55 62 64 64 64 62 63 61 62 64 65 65 65 64
16 15 18 18 20 20 21 20 21 24 25 24 25 27 28 29 30 30 30 31 31 32 34 34 37 40 45 47 54 55 61 64 64 64 62 62 61 60 61 62 64 64 64 64
15 15 17 15 16 18 20 19 21 23 24 21 21 20 21 21 23 25 25 30 31 32 31 31 34 41 47 53 58 61 63 64 64 63 62 60 60 60 59 59 60 62 64 64
11 12 12 17 14 14 14 20 21 21 20 18 17 16 17 16 16 16 19 20 23 28 30 34 35 39 51 55 61 63 64 64 64 63 61 59 58 58 58 59 60 61 63 63
11 11 10 11 13 17 13 16 18 20 21 18 18 16 13 17 15 18 21 19 23 23 26 29 33 41 53 60 62 63 64 64 63 62 61 60 59 58 59 59 60 60 61 62
12 11 10 9 8 9 15 13 19 19 19 17 17 17 12 13 14 15 16 23 23 26 30 32 39 55 59 61 63 63 64 62 62 61 61 59 59 58 59 58 59 59 60 60
14 13 14 12 10 12 11 9 13 13 16 15 18 16 14 19 22 21 20 21 24 26 26 43 54 57 59 61 62 62 63 61 61 60 59 59 59 59 58 58 58 58 58 59
24 20 16 22 13 10 8 8 12 10 16 11 17 16 16 19 19 17 17 18 22 25 28 44 55 58 60 62 62 61 61 60 60 60 59 58 59 59 59 58 59 59 59 59
24 25 24 21 18 17 17 8 8 6 12 11 17 18 18 19 21 20 20 19 20 25 33 52 57 59 61 61 61 61 61 60 60 59 59 59 59 59 59 58 59 59 59 59
25 19 25 23 24 18 14 19 7 9 7 10 15 16 17 19 15 15 17 21 23 28 47 56 59 60 61 61 61 60 60 59 59 59 59 59 59 59 59 60 59 59 59 60
29 25 22 25 21 14 19 23 23 10 11 12 12 16 21 20 21 21 23 23 30 38 55 58 60 61 61 61 61 60 60 59 59 58 58 58 59 59 59 59 59 59 59 59
32 30 26 24 23 21 21 25 23 16 13 11 16 13 17 21 19 20 22 25 49 52 55 59 60 60 60 61 60 60 60 59 58 58 58 58 59 58 59 59 60 58 59 59
35 27 22 20 26 30 27 27 27 31 26 19 9 11 17 18 17 19 20 33 52 54 56 59 59 59 60 60 60 60 60 59 58 58 59 58 58 58 59 59 59 58 58 59
37 33 25 20 22 27 27 28 31 31 26 22 20 17 15 14 22 28 27 48 53 54 57 58 58 59 59 60 60 60 59 59 58 58 59 58 58 59 59 59 59 59 59 59
36 31 31 29 30 30 29 29 28 28 29 28 22 23 26 29 30 31 31 35 52 54 56 57 57 58 59 59 59 59 58 58 58 58 58 58 58 59 59 59 59 59 59 59
35 28 31 27 30 29 28 30 29 30 30 28 28 27 29 30 32 35 48 45 50 54 55 56 57 58 58 59 59 58 57 57 58 58 58 59 59 59 59 59 59 58 58 60
34 32 27 22 26 29 28 32 30 30 29 27 24 27 31 32 33 37 48 49 50 53 55 55 56 57 58 58 58 57 56 56 57 58 59 59 59 59 59 59 58 57 57 58
29 28 30 25 27 21 28 39 33 31 29 27 28 27 28 33 37 50 51 50 51 53 55 55 56 57 57 57 56 55 55 56 58 59 59 59 59 59 59 59 57 56 56 57
30 29 28 26 27 30 30 38 38 36 35 42 43 44 47 47 50 49 51 52 51 53 54 55 56 56 56 54 53 54 55 57 58 59 59 59 59 59 59 58 57 56 56 56
32 31 30 28 25 24 34 38 39 39 32 43 44 45 46 48 45 45 51 53 54 53 54 54 55 55 54 53 53 52 55 57 57 58 59 59 59 60 59 58 57 56 57 59
33 32 28 28 27 32 36 37 38 34 34 42 45 46 45 46 48 50 53 54 57 54 53 54 54 53 53 52 52 51 55 56 57 58 59 59 59 59 59 58 57 57 59 59
31 31 32 31 29 26 39 36 36 39 44 44 45 46 46 48 52 51 53 55 57 56 54 54 53 52 51 52 51 50 53 55 57 57 58 59 59 60 59 58 57 57 56 56
32 35 32 32 32 39 41 39 43 45 45 44 46 46 47 48 51 51 53 55 56 56 55 53 52 50 51 51 50 49 50 52 56 57 58 59 60 60 59 58 59 58 56 57
37 40 37 36 37 38 40 42 44 45 45 46 47 46 45 48 51 51 52 53 56 57 56 52 50 49 50 50 49 49 49 51 56 57 58 59 59 58 59 59 59 57 57 57
36 37 35 35 37 38 41 40 43 44 46 45 46 46 43 48 50 52 52 55 56 57 58 52 50 50 50 50 49 49 49 53 56 57 58 59 59 59 58 59 58 58 56 56
37 35 35 34 37 38 38 39 43 44 44 45 46 44 42 48 48 51 53 55 56 55 55 54 51 51 50 50 50 49 50 54 57 57 58 59 59 58 58 56 54 41 45 48

GFSCGP_sfc_dewp_048.txt.gz
Dewpoint
19 17 17 20 22 22 23 22 25 27 28 29 27 27 29 31 31 31 31 31 32 33 35 38 39 40 42 45 46 46 48 56 62 63 62 62 63 64 64 65 65 65 65 65
17 14 18 22 22 22 22 21 21 23 26 24 24 22 23 26 29 31 32 32 33 33 35 36 37 40 41 43 46 50 50 60 62 63 62 62 62 62 63 64 65 66 66 65
15 17 19 17 19 19 19 19 21 23 24 23 23 22 24 25 25 23 24 27 32 33 34 35 34 35 38 44 47 53 57 61 63 63 61 60 60 61 60 61 63 64 65 65
11 12 14 15 15 16 15 21 21 22 22 19 21 17 19 20 21 22 20 19 20 28 31 31 33 35 36 39 54 60 62 63 63 62 61 61 60 59 59 60 62 62 64 64
10 11 10 11 13 16 14 19 20 22 20 19 18 16 16 18 17 18 19 18 19 21 24 27 29 31 34 49 58 62 63 63 63 62 61 59 59 59 59 60 60 61 62 63
12 15 10 9 12 15 17 16 17 19 20 17 17 16 13 13 11 12 16 18 23 25 26 28 31 36 46 58 61 62 63 62 62 62 61 60 59 59 59 59 59 60 61 62
16 15 14 12 11 14 12 11 13 14 15 11 18 16 12 18 20 22 21 22 23 24 24 28 31 48 55 59 61 62 62 61 62 61 61 60 59 59 59 59 59 60 60 61
21 20 16 16 13 11 9 8 14 10 14 10 19 16 16 21 18 18 19 22 24 24 24 26 30 47 57 60 61 62 61 60 60 60 60 59 59 59 59 59 60 60 60 60
29 24 29 23 19 15 14 7 8 5 11 8 16 18 19 17 16 19 23 23 22 24 26 27 36 55 59 61 61 61 61 60 59 59 58 59 59 59 59 59 60 60 60 60
27 19 25 25 23 18 15 14 8 8 4 8 13 15 16 19 18 15 22 23 25 28 31 34 54 59 60 61 60 61 60 59 59 58 59 59 60 60 60 60 60 60 60 60
31 25 22 24 20 12 18 16 18 11 11 11 11 14 20 18 22 24 23 23 25 42 53 55 58 60 61 60 60 60 59 59 58 59 59 59 59 60 60 60 60 60 60 60
33 30 26 24 24 25 20 21 24 18 14 11 14 12 22 20 20 22 23 26 30 53 55 57 58 60 60 60 60 59 59 58 58 58 58 59 59 59 59 60 60 60 60 60
33 27 22 20 26 29 26 27 23 28 29 24 11 10 17 19 21 22 27 31 37 54 56 58 58 59 60 60 60 59 59 58 58 58 58 58 58 58 59 60 60 59 60 60
36 30 24 18 20 26 25 26 27 29 26 22 20 19 20 21 22 27 27 32 38 53 57 57 58 59 60 60 59 59 58 58 58 58 58 58 58 59 60 60 59 60 60 60
35 30 31 31 30 29 29 28 28 27 27 27 24 23 25 28 28 28 30 33 45 51 56 58 58 58 60 60 59 59 59 58 58 58 58 58 59 59 60 60 60 60 60 60
36 30 29 27 27 26 28 29 30 29 28 27 28 29 30 30 29 29 29 34 47 49 55 58 58 59 59 59 59 59 58 58 58 58 58 59 59 59 59 60 60 60 59 60
35 32 29 22 25 27 22 27 26 27 28 27 25 28 29 28 29 32 32 39 48 50 55 57 58 58 59 59 59 58 58 58 58 58 58 59 59 59 59 60 59 58 58 59
34 30 30 24 23 18 20 37 38 34 30 30 29 27 28 29 36 38 39 38 50 51 56 57 58 58 59 59 59 58 57 58 58 58 59 59 59 59 59 59 58 58 58 58
34 30 27 24 22 26 27 36 37 36 33 36 37 42 43 46 47 48 48 50 52 54 56 57 58 58 58 58 58 57 56 57 58 58 59 59 59 59 59 58 58 57 57 58
33 32 28 28 23 22 32 36 38 39 32 42 43 43 44 45 42 45 49 52 53 55 56 56 57 58 57 57 57 56 56 57 57 58 59 59 59 59 59 58 58 58 58 58
32 31 27 27 26 31 36 38 38 32 33 42 43 44 45 43 46 48 51 52 55 55 55 56 57 56 56 55 56 55 56 56 57 59 59 59 60 60 59 58 59 58 60 58
31 30 31 31 28 26 38 36 32 36 39 42 43 45 45 45 46 47 51 53 55 55 55 56 56 55 54 54 55 54 56 57 58 59 59 59 59 60 59 59 58 59 60 58
30 34 32 32 32 38 41 37 38 40 41 43 44 45 46 46 45 48 51 53 55 56 56 56 54 53 53 54 54 54 55 57 58 58 59 59 59 59 59 59 58 58 58 56
35 39 36 35 37 38 41 42 42 43 43 44 44 46 46 46 46 49 52 54 56 57 57 55 52 52 52 53 53 53 54 57 57 58 58 59 59 59 59 59 58 58 58 58
34 36 34 35 36 38 39 41 43 43 44 44 44 46 46 46 46 51 52 54 56 56 58 55 52 52 52 52 52 51 53 57 57 58 58 59 59 59 58 58 57 58 59 57
36 35 35 34 38 39 39 41 44 44 44 45 45 46 46 48 48 51 54 57 57 56 55 55 53 52 52 51 50 51 52 56 57 58 58 59 58 59 58 56 54 42 45 48

GFSCGP_sfc_dewp_051.txt.gz
Dewpoint
23 17 17 19 24 23 18 20 20 21 24 27 28 29 28 31 31 31 33 35 38 41 42 43 46 49 52 57 59 60 57 59 62 63 63 64 64 65 65 66 67 68 68 67
20 17 16 21 21 23 23 21 22 24 25 28 26 28 29 30 31 33 34 35 37 40 41 43 46 48 54 55 58 60 58 60 63 63 66 65 65 65 65 66 68 68 68 68
17 16 18 18 19 21 21 22 23 22 24 25 25 25 27 28 29 29 30 32 33 35 36 41 41 47 49 52 56 56 58 62 64 65 66 66 66 65 65 66 67 67 68 68
18 18 16 16 17 20 20 22 21 22 23 20 24 19 24 26 26 28 29 29 31 31 33 36 39 43 48 48 49 54 61 64 65 66 65 66 63 63 64 65 66 67 68 67
16 12 11 15 16 19 19 21 22 22 22 22 20 18 20 22 21 23 27 28 29 30 31 32 33 38 40 45 46 58 64 66 66 66 66 65 66 64 65 65 67 68 68 68
17 20 14 11 16 16 20 17 17 18 18 16 19 19 16 17 20 21 22 23 25 27 28 30 33 37 40 42 56 64 66 67 67 67 67 67 67 65 64 65 64 63 64 65
18 16 14 11 8 12 14 19 15 13 13 14 16 16 18 20 22 20 22 24 27 29 30 32 33 34 40 50 60 64 66 66 66 66 66 66 66 66 65 64 63 63 63 64
22 12 17 16 10 10 13 16 10 6 8 9 15 13 13 21 21 24 25 28 29 30 32 34 37 39 38 53 62 65 66 66 66 65 65 65 66 63 63 64 63 63 63 65
29 21 28 22 18 14 12 9 13 8 14 9 11 15 17 18 19 19 21 27 33 36 40 47 51 44 46 58 64 65 65 65 65 65 65 65 65 64 63 66 66 64 65 64
29 22 28 29 26 18 16 13 10 9 5 3 9 12 9 21 22 22 21 28 34 43 48 54 55 52 57 62 65 65 65 65 64 64 63 63 64 64 64 65 65 65 65 64
31 27 21 23 22 18 15 14 14 13 10 6 6 9 23 23 25 27 27 28 30 39 50 56 58 59 61 63 64 65 64 63 62 63 63 63 63 63 64 64 64 64 65 63
31 33 24 21 22 26 24 19 21 13 10 11 10 10 25 25 25 28 29 29 29 37 50 56 57 59 61 62 63 63 62 61 61 62 62 62 63 63 64 64 64 64 63 62
33 28 22 17 27 28 23 24 21 23 26 19 10 8 20 22 23 27 30 30 28 35 45 56 57 59 60 62 62 62 61 60 60 60 61 62 63 63 63 64 64 63 62 62
36 31 25 20 21 26 24 25 25 26 20 18 17 17 19 21 24 28 31 31 29 30 42 55 58 59 60 61 61 60 60 60 60 59 60 61 62 62 63 64 63 63 62 62
35 28 27 26 28 28 26 26 25 24 23 22 20 20 22 25 30 32 32 30 28 25 32 46 57 59 61 61 61 60 59 59 59 57 58 61 62 63 63 63 62 62 62 62
34 28 30 26 24 23 23 23 23 23 24 25 24 24 27 30 29 28 27 27 29 30 33 43 57 60 60 61 60 60 59 59 58 57 58 60 61 62 63 63 62 62 62 62
34 32 28 19 22 22 19 22 23 24 25 25 22 24 26 26 28 29 29 31 34 36 36 47 56 59 61 60 61 60 59 58 58 58 59 59 61 61 62 62 62 62 63 64
33 32 29 22 25 18 18 34 34 34 34 33 34 32 30 27 29 29 34 37 39 39 38 48 57 60 61 61 61 60 59 58 56 57 57 59 59 60 61 62 62 63 63 63
36 32 28 22 23 22 23 35 35 35 33 36 36 33 30 30 32 38 41 38 43 44 43 53 58 60 62 61 61 60 58 56 56 56 57 58 59 60 60 61 62 62 62 62
36 36 29 26 24 22 33 36 39 38 30 40 40 40 37 39 40 33 40 50 51 53 54 56 59 60 61 61 60 60 58 56 57 57 57 58 59 60 60 62 62 62 62 61
34 32 28 28 27 30 36 38 38 30 32 38 39 39 42 43 43 45 49 49 51 53 55 58 59 60 61 61 60 58 57 56 57 58 58 59 60 61 62 62 63 62 62 60
32 31 30 32 29 26 38 38 32 38 39 39 40 44 44 45 46 47 48 49 52 54 56 58 58 59 61 60 60 57 58 58 58 58 58 59 61 60 61 62 62 62 61 60
31 33 33 33 33 39 41 40 42 42 40 40 40 43 44 44 46 47 49 51 54 55 57 57 58 59 59 60 60 58 58 58 58 58 59 60 61 61 62 62 61 59 60 58
33 37 36 35 35 36 39 43 42 43 42 42 44 44 44 46 46 48 49 53 55 56 57 58 57 57 58 59 59 58 59 58 58 59 60 61 61 61 61 61 60 59 59 58
35 37 35 34 35 38 40 42 44 42 43 45 44 44 46 47 47 48 50 53 55 57 58 58 56 57 57 58 58 58 58 58 58 59 60 60 60 61 60 60 58 59 60 57
37 35 36 34 38 40 40 42 45 44 42 43 46 46 47 47 48 50 52 58 58 57 58 58 56 57 56 56 56 56 56 58 59 59 59 59 59 60 59 57 56 43 47 48

GFSCGP_sfc_dewp_057.txt.gz
Dewpoint
22 18 16 16 14 11 10 5 4 9 12 15 16 19 23 29 32 33 32 35 37 38 38 38 41 45 48 57 62 64 63 70 66 60 57 57 59 62 63 63 67 67 69 69
18 16 18 16 14 15 12 11 11 7 9 16 17 16 21 23 28 31 33 33 34 36 38 40 43 47 53 57 61 64 67 69 69 62 65 61 62 60 63 64 68 68 69 69
18 18 18 14 14 14 14 13 13 10 10 15 20 18 20 21 25 28 31 33 34 36 37 40 41 47 50 55 59 61 65 68 69 69 65 66 66 67 64 65 67 68 69 69
20 20 17 16 16 14 13 11 11 11 14 14 19 16 22 22 23 27 29 31 32 34 37 39 41 46 50 49 51 59 63 67 67 71 66 71 65 64 63 65 67 68 69 70
22 22 20 17 13 13 12 12 13 12 13 17 18 16 20 22 23 24 28 29 31 34 36 35 36 39 40 45 48 55 61 65 68 70 70 65 69 63 63 63 72 72 71 70
20 23 20 18 16 13 13 13 13 12 11 12 17 19 17 20 23 23 25 27 29 30 32 34 35 36 35 36 39 52 59 64 66 69 69 73 72 70 65 67 68 67 69 69
22 19 18 21 17 17 15 17 13 12 9 14 20 19 23 23 23 23 24 26 27 28 28 29 30 32 36 38 41 45 56 61 65 67 68 68 72 74 74 71 67 68 68 67
23 20 25 26 23 15 16 22 21 18 11 12 20 18 20 24 24 23 22 25 26 27 29 31 33 37 36 40 43 45 53 61 66 67 68 69 71 67 68 71 66 65 64 66
26 22 25 25 22 24 16 18 26 22 24 24 22 18 21 22 22 23 23 26 31 35 39 42 44 48 50 49 47 51 53 61 66 68 69 70 71 72 69 72 72 65 68 66
24 22 23 23 25 24 24 15 22 16 13 15 17 18 16 21 21 23 25 27 31 33 35 42 50 55 56 51 49 56 59 64 67 68 68 68 68 68 68 69 69 68 68 65
20 26 22 26 26 26 18 17 19 23 20 17 15 17 23 21 23 26 24 29 30 31 31 43 54 57 57 51 54 61 64 65 66 67 67 68 67 67 67 66 65 66 66 64
24 31 21 18 20 26 24 23 27 25 17 17 19 16 27 26 25 26 30 31 30 31 31 36 55 56 57 56 59 63 64 64 65 66 66 66 65 65 66 65 65 65 64 63
34 27 23 16 25 24 20 22 28 30 32 28 19 20 29 29 30 30 30 31 30 32 31 32 53 57 58 58 60 61 63 63 63 63 63 64 65 65 65 64 64 63 62 61
34 29 27 23 19 32 30 27 19 24 29 23 16 24 28 26 26 25 26 28 30 30 29 32 42 58 60 58 59 60 61 62 61 61 62 63 64 64 63 63 62 61 61 60
34 32 27 24 20 20 16 14 14 15 18 17 19 23 30 30 25 24 27 27 27 26 27 32 36 58 59 61 59 59 59 60 61 60 61 62 62 61 61 61 62 61 61 59
36 31 28 23 20 15 14 14 14 14 14 14 17 18 21 24 23 22 23 23 24 25 26 31 36 57 60 61 60 59 59 59 59 59 58 58 58 59 63 64 63 61 60 59
34 33 31 25 21 22 16 15 14 14 14 14 12 17 19 18 20 23 25 27 26 27 27 33 37 49 61 61 63 58 59 59 58 56 55 56 58 60 62 62 62 60 62 65
37 32 30 25 25 21 16 25 27 25 25 31 31 28 28 28 28 28 29 30 28 27 30 36 43 49 62 62 61 59 58 57 54 54 54 55 56 58 59 61 62 62 64 63
39 36 32 28 29 24 22 28 30 32 30 32 31 29 28 30 32 36 34 32 32 32 33 41 46 54 62 63 61 59 57 54 51 51 54 54 55 57 58 60 62 65 64 65
38 38 34 29 29 25 36 38 39 36 29 37 37 37 37 38 37 34 44 40 34 38 43 45 49 56 63 64 62 58 56 53 50 51 52 54 55 57 59 63 63 63 64 64
33 34 31 29 31 30 39 37 37 32 32 41 39 39 37 38 39 42 44 45 45 44 44 45 49 57 61 63 63 58 55 51 51 51 52 54 60 60 63 64 64 64 63 63
34 33 32 34 31 28 38 34 36 37 41 41 41 41 40 40 39 42 43 43 44 45 45 46 49 61 62 64 62 57 54 51 51 51 52 56 61 59 59 63 65 64 64 62
33 35 36 37 35 38 38 38 42 43 42 41 41 42 40 40 39 41 42 44 43 45 48 48 52 62 63 63 61 56 54 52 51 52 54 58 61 61 61 62 63 60 62 60
33 34 36 36 35 35 35 40 41 43 42 43 43 43 42 41 40 42 43 43 43 45 48 51 58 61 61 61 59 56 52 51 51 53 55 59 60 61 61 62 64 63 62 58
34 37 37 35 34 34 33 38 43 44 44 44 44 43 41 41 44 42 42 42 44 46 50 55 59 61 61 61 57 55 50 51 53 54 54 55 59 60 62 62 61 63 62 58
39 38 37 36 38 35 37 44 45 45 42 43 43 43 43 43 43 43 43 44 47 49 52 59 61 61 60 57 54 52 50 52 55 55 53 52 53 54 57 58 59 43 44 43

GFSCGP_sfc_dewp_060.txt.gz
Dewpoint
20 17 16 18 18 15 12 11 9 10 7 6 8 12 17 21 25 26 35 36 37 40 42 42 47 49 53 63 66 69 68 71 71 71 68 67 65 67 69 70 70 71 71 70
17 15 15 15 16 16 15 13 14 15 13 12 14 11 14 19 23 25 31 36 38 39 40 45 47 55 60 65 66 68 68 70 71 71 70 69 70 67 68 70 71 71 71 71
15 15 16 17 17 16 15 14 14 13 14 13 13 13 15 16 22 22 28 34 37 39 41 42 47 55 60 61 65 65 68 69 71 70 70 70 71 72 71 70 71 71 71 71
14 15 16 18 17 13 14 14 12 12 12 9 12 9 18 17 22 25 25 31 35 36 39 43 47 53 60 59 62 64 67 67 69 71 67 68 67 66 69 70 70 71 71 70
11 16 15 22 20 20 17 13 12 11 12 12 10 10 13 20 20 25 26 29 34 35 36 38 43 47 51 56 57 61 65 67 67 69 68 66 69 67 72 70 72 71 71 71
18 21 23 22 24 25 15 13 12 12 10 8 10 10 10 14 22 24 27 27 30 34 34 36 40 46 47 47 51 57 60 65 66 69 69 69 69 69 68 69 70 70 70 69
21 15 24 27 24 25 16 15 11 8 8 12 12 7 12 17 20 25 26 28 30 31 33 36 38 38 44 47 51 55 62 62 66 67 69 69 73 70 74 71 69 69 68 68
18 17 21 20 19 20 21 18 19 16 16 22 24 21 11 19 19 24 28 28 33 31 32 35 38 44 39 44 49 50 55 63 65 65 68 70 72 70 72 70 69 69 68 69
22 16 18 17 18 24 21 17 20 18 21 21 24 27 25 25 25 24 26 26 30 33 37 36 37 46 49 52 59 59 57 60 63 68 70 70 71 72 71 72 73 70 70 70
20 18 14 14 17 21 21 22 22 26 21 18 18 20 21 26 26 25 28 31 34 37 36 40 43 51 57 59 62 62 59 61 68 69 70 70 71 72 72 72 71 71 70 69
22 24 24 21 18 18 20 17 18 19 20 15 16 16 29 29 31 31 26 30 35 34 32 35 44 53 57 59 57 61 58 66 68 69 70 71 71 70 70 70 69 69 70 68
26 29 23 20 19 31 31 25 30 28 20 24 26 25 30 37 37 36 27 30 32 32 31 31 54 57 56 57 55 60 64 65 68 69 69 69 69 69 69 68 69 69 68 66
36 25 23 18 18 33 31 27 27 32 31 22 19 21 34 39 38 38 35 31 31 32 31 33 53 53 57 55 59 62 65 65 66 67 67 68 68 67 68 68 68 67 67 65
35 30 26 24 23 30 30 27 25 30 28 20 16 20 34 37 38 41 39 32 31 31 31 32 41 53 58 58 60 62 63 64 65 65 65 66 67 67 67 67 67 66 64 64
34 32 29 24 24 24 21 24 24 20 14 12 13 15 26 37 39 41 42 35 26 26 27 32 38 55 59 62 61 61 62 63 64 63 64 65 66 66 65 65 65 64 65 63
36 31 30 26 23 20 23 24 15 12 13 10 11 13 20 40 40 38 33 23 23 24 26 29 36 55 60 62 62 61 61 62 62 62 63 64 63 62 64 64 64 65 64 64
36 32 30 24 22 21 20 25 27 30 29 23 24 30 31 27 27 31 31 29 28 28 27 29 37 47 59 62 63 60 60 60 61 61 61 60 60 61 63 63 63 64 65 65
37 36 34 28 27 20 18 29 29 29 28 27 27 29 30 28 31 30 31 30 34 32 29 32 39 60 60 63 62 62 59 59 59 58 56 57 59 61 62 63 64 65 65 65
38 36 33 30 26 25 23 30 35 36 34 32 31 33 33 35 36 35 40 44 43 38 35 35 42 61 63 63 63 61 58 57 55 54 55 56 59 61 62 62 64 66 66 65
37 38 34 29 28 25 36 37 37 37 31 38 40 39 38 37 33 32 42 41 44 47 40 40 47 56 63 63 64 62 57 55 54 53 54 55 58 61 61 63 65 66 66 65
35 34 31 30 30 29 38 37 37 32 31 42 41 40 38 38 37 40 41 41 43 44 46 46 47 57 62 63 62 62 57 54 53 53 53 57 61 61 64 65 66 65 65 65
34 32 34 35 30 29 38 38 35 38 41 40 40 40 40 40 40 39 39 40 41 43 43 44 47 53 63 62 63 62 58 55 53 53 55 60 62 59 62 65 65 64 64 64
33 35 36 36 36 39 42 42 43 43 41 41 41 41 41 41 40 40 40 40 41 42 45 44 48 57 63 63 62 62 58 54 53 55 60 60 62 62 63 64 64 63 64 62
33 33 37 37 38 38 40 40 39 43 44 43 44 44 43 42 42 41 40 40 41 43 44 46 48 59 61 63 62 62 55 52 52 60 60 61 62 61 62 64 65 63 64 62
34 36 37 37 38 36 36 39 43 43 43 44 43 42 43 44 43 41 40 40 41 42 44 51 53 60 61 62 61 62 53 53 56 60 60 61 61 62 64 60 60 64 57 58
37 38 38 38 38 40 37 39 44 42 43 42 42 41 43 44 43 41 41 44 44 41 45 52 57 61 61 61 60 58 52 55 58 58 60 60 60 61 60 60 57 42 44 43

GFSCGP_sfc_dewp_063.txt.gz
Dewpoint
21 17 16 17 17 16 15 15 15 15 15 14 14 13 13 14 13 14 21 30 30 32 33 35 39 46 48 59 58 57 60 64 62 64 64 64 63 62 65 66 67 67 70 70
16 15 17 16 16 17 17 16 15 16 16 13 14 13 14 14 14 14 14 20 30 33 34 35 36 38 50 58 57 57 56 61 62 64 64 62 62 62 63 66 66 68 69 70
17 15 14 15 16 15 16 15 16 16 16 15 14 14 14 14 14 14 15 15 24 35 35 36 39 39 44 60 61 60 61 62 61 64 66 64 64 66 67 66 66 69 69 70
15 11 12 19 18 17 17 22 22 18 13 11 14 9 12 13 13 14 15 14 18 26 34 34 35 41 56 57 57 59 61 60 62 63 64 63 61 61 64 66 68 69 69 69
12 11 20 19 22 28 26 25 20 19 15 11 10 10 10 15 12 12 14 17 20 24 32 34 35 40 54 54 57 58 60 60 61 64 63 62 63 64 64 67 68 68 69 69
16 18 18 28 27 25 26 27 24 19 12 9 9 9 8 9 10 13 14 15 19 24 32 33 34 38 50 53 54 55 57 59 59 62 65 62 61 64 66 66 68 68 68 69
20 16 19 25 25 21 20 26 24 18 13 12 12 17 20 25 18 12 13 15 14 16 23 33 33 36 45 45 49 52 54 57 62 62 64 64 61 64 65 67 68 68 67 67
17 16 16 20 16 14 17 23 24 18 15 15 16 16 15 23 26 26 25 20 13 15 23 32 31 31 37 42 45 50 53 52 61 61 64 64 65 68 66 69 68 68 67 67
23 22 23 19 15 14 14 20 21 23 25 25 23 20 22 23 26 32 34 23 18 19 35 28 33 38 37 40 43 45 46 58 60 64 63 68 66 69 68 68 68 67 67 67
26 24 24 22 24 22 25 24 19 30 20 19 18 19 20 35 38 38 38 38 33 27 34 37 40 46 52 54 56 56 53 60 61 63 67 68 68 69 70 70 68 67 68 68
27 27 25 24 22 25 27 28 31 33 30 23 19 17 37 38 39 39 37 39 40 36 33 33 41 53 54 56 56 57 55 59 65 68 68 68 69 70 69 69 68 68 68 68
33 32 25 23 21 29 29 27 31 28 24 26 25 23 38 39 39 40 38 41 44 37 32 42 55 56 56 56 56 57 55 65 67 68 68 69 69 68 68 67 66 67 67 66
34 29 24 21 21 32 28 25 26 33 34 28 24 21 35 37 37 39 41 44 45 43 32 30 54 53 55 55 56 57 64 66 68 68 68 68 67 67 66 65 65 65 63 62
37 31 28 24 25 28 26 24 25 25 25 24 22 21 32 37 37 39 41 43 43 41 37 29 41 53 57 59 57 63 64 66 67 67 67 66 66 66 65 65 64 64 62 61
34 32 31 29 28 26 24 22 25 22 22 24 27 28 34 38 39 40 42 44 41 36 37 30 34 54 58 61 62 62 65 65 66 66 65 65 65 65 64 63 63 62 62 61
36 33 32 30 28 25 22 25 28 25 25 25 26 29 37 39 41 41 38 37 36 34 33 27 33 43 60 61 62 63 64 64 64 64 64 64 64 63 62 62 61 61 61 60
37 34 32 27 26 26 23 22 26 29 28 27 29 34 34 38 37 35 33 35 37 43 40 35 35 52 55 61 62 63 62 64 63 63 63 63 62 61 61 62 62 61 61 60
36 33 34 29 29 21 23 28 30 29 30 31 33 37 37 37 38 36 36 43 40 42 43 44 35 48 58 63 62 64 63 62 62 61 61 60 60 61 61 61 60 62 60 61
38 35 30 26 25 27 26 36 35 34 31 39 38 37 37 38 36 35 43 39 39 40 41 43 44 52 59 63 64 62 61 59 58 57 57 59 60 61 60 60 61 61 61 60
38 38 34 28 22 18 32 38 37 37 28 39 37 36 36 37 35 35 37 39 39 40 40 42 44 44 60 62 63 62 59 56 55 55 55 59 60 60 60 60 62 61 61 61
34 34 30 29 28 29 37 40 39 30 28 40 39 38 38 38 37 38 39 40 40 40 40 42 43 44 54 62 59 62 57 54 53 54 55 59 60 61 61 62 62 61 61 61
28 29 30 32 30 24 41 39 35 35 38 39 40 40 39 40 40 40 41 41 40 40 41 41 42 46 51 60 62 62 60 54 53 55 58 60 60 61 62 62 61 61 61 60
29 35 34 35 32 38 42 41 41 43 41 41 41 41 40 41 41 40 41 41 40 40 40 41 42 43 49 60 64 62 60 53 56 59 59 59 60 61 61 61 61 61 61 60
35 34 33 34 37 40 42 42 43 43 43 43 42 42 43 42 41 41 40 41 41 40 40 41 42 45 54 61 63 61 61 56 58 59 59 60 60 61 61 62 61 61 60 60
32 34 34 35 39 41 41 42 42 44 44 42 42 42 41 41 41 42 43 42 41 39 40 42 43 52 56 62 62 62 61 58 58 59 60 60 60 61 56 52 52 58 53 56
36 37 38 37 41 40 40 42 44 44 42 42 42 40 40 39 40 42 43 43 41 40 41 43 47 55 58 62 62 61 59 59 59 59 59 59 60 59 57 55 53 42 41 41

GFSCGP_sfc_dewp_069.txt.gz
Dewpoint
19 15 14 15 19 18 20 19 17 18 18 18 17 18 19 19 18 17 19 20 21 22 21 23 24 34 44 49 50 54 57 59 64 63 64 65 65 66 66 67 66 67 68 66
18 16 17 17 16 19 19 19 19 22 24 22 22 21 21 19 18 18 19 20 20 21 21 19 22 25 33 40 51 52 57 60 63 63 62 61 62 64 64 66 66 67 67 68
16 16 17 15 19 20 21 20 22 23 24 23 22 18 18 18 18 17 18 18 19 19 19 19 19 22 26 32 42 52 54 60 64 64 63 62 62 63 62 62 63 65 67 68
16 17 16 14 19 25 23 23 25 23 24 21 22 16 18 17 15 16 15 15 16 17 18 20 16 17 18 20 29 48 53 59 64 65 63 61 59 59 60 61 62 63 66 69
13 14 14 18 19 27 22 26 23 23 25 24 23 16 16 18 16 15 14 14 22 36 38 38 37 30 20 17 22 39 53 55 61 65 63 62 58 57 60 61 62 64 66 69
15 17 18 19 26 26 24 21 23 25 21 19 20 16 15 15 14 18 20 35 39 38 38 38 38 38 38 30 20 29 46 53 56 62 62 60 59 57 59 62 62 65 66 68
18 19 20 29 25 21 17 19 14 15 16 14 17 17 15 19 21 26 37 38 39 38 37 36 36 39 40 40 32 41 48 53 55 59 60 60 58 55 57 61 62 65 65 66
19 16 22 25 21 19 17 18 16 13 15 13 19 19 19 22 36 39 39 39 38 36 34 35 36 39 41 42 41 26 36 53 55 56 58 58 56 55 59 62 64 65 66 66
22 23 26 25 25 23 20 16 21 21 23 20 21 21 24 25 36 37 36 35 34 35 37 37 38 42 44 44 43 39 31 49 54 56 57 57 57 58 60 63 65 66 66 67
25 24 26 26 26 25 23 25 21 21 12 14 20 22 21 23 24 35 35 35 38 39 39 40 41 43 45 44 44 47 39 42 52 55 55 57 59 59 61 65 66 66 66 67
29 27 26 27 24 22 21 23 28 25 27 20 19 20 27 31 35 35 35 37 39 39 40 41 43 44 44 44 42 48 39 46 50 51 56 58 61 62 64 65 66 66 66 67
32 30 27 27 27 27 26 26 26 21 20 26 24 21 27 35 36 37 37 39 40 39 42 43 46 47 45 45 43 51 47 49 50 53 59 62 63 64 65 65 66 66 66 67
32 28 25 21 20 26 26 27 28 29 30 25 23 21 31 36 35 38 39 41 41 41 44 47 47 46 46 47 45 53 53 46 52 57 61 63 64 65 66 66 66 66 66 67
35 31 29 23 23 26 27 28 28 28 28 25 25 25 27 30 33 36 40 43 45 43 48 48 48 47 47 49 58 60 56 60 62 62 63 64 66 66 66 66 66 67 67 66
33 27 31 31 30 31 30 30 30 29 28 25 25 25 26 31 35 37 42 43 44 43 47 47 46 45 46 48 57 59 59 63 65 65 65 65 66 65 66 66 66 66 66 65
32 29 32 29 28 30 29 28 29 30 29 27 24 26 31 38 39 39 40 39 42 44 45 45 44 42 44 49 57 58 61 65 66 65 65 65 65 65 65 65 64 64 64 63
29 28 28 25 29 29 25 27 26 26 27 28 27 29 37 37 36 35 35 36 41 43 44 40 40 40 42 49 58 59 59 65 65 65 65 64 64 64 63 63 63 63 61 60
30 31 35 29 27 20 23 34 33 31 30 31 31 34 37 37 36 36 36 38 34 39 39 39 40 40 41 54 58 59 61 63 64 64 63 63 63 62 62 61 60 59 59 59
33 33 32 27 24 25 26 34 33 30 28 32 37 36 35 36 37 35 35 34 37 38 39 40 41 41 41 52 56 58 59 59 63 63 63 62 62 61 60 59 59 59 58 58
34 35 34 29 25 16 25 37 38 35 30 35 37 36 36 37 34 34 35 39 39 39 40 40 41 41 43 47 54 56 58 59 58 63 62 62 61 60 59 59 59 58 60 59
34 34 29 28 27 28 33 39 39 31 26 38 39 38 38 37 37 38 40 40 40 40 41 41 41 41 44 47 54 57 58 58 59 63 62 61 60 59 60 59 59 59 59 58
26 30 28 31 28 24 39 39 33 33 36 39 41 40 39 39 39 39 40 40 39 41 41 41 41 41 43 46 55 57 57 58 59 60 61 59 59 59 60 59 60 60 59 58
25 30 31 32 28 34 39 37 39 41 41 41 40 41 41 40 40 40 41 40 40 40 41 41 41 42 43 48 55 57 57 59 59 61 60 58 59 59 59 59 59 59 59 58
32 33 30 30 30 33 36 38 41 43 43 43 43 42 42 41 41 41 39 38 39 39 40 41 42 42 44 48 55 59 60 59 60 60 59 59 59 59 60 60 60 59 58 58
30 32 30 30 33 36 37 40 42 43 43 42 42 42 42 42 41 39 38 38 38 38 39 40 42 43 44 48 56 59 59 61 60 60 60 59 59 60 57 52 55 59 58 58
33 32 32 31 34 36 37 40 42 42 43 42 42 41 40 40 40 41 41 40 39 38 39 40 43 44 45 51 55 57 57 59 61 61 60 59 59 57 55 54 51 41 41 43

GFSCGP_sfc_dewp_072.txt.gz
Dewpoint
19 16 14 15 17 18 18 18 17 18 19 22 20 21 21 24 21 19 20 21 23 25 25 29 30 31 34 43 46 47 57 63 65 64 63 64 62 63 65 64 65 66 66 66
17 15 17 17 16 19 19 17 18 21 23 22 22 21 22 22 22 19 19 21 21 27 24 26 26 29 31 34 40 45 48 55 63 65 64 64 63 63 63 65 66 67 67 67
16 15 19 16 17 19 20 19 19 22 25 25 23 21 20 19 21 21 19 20 21 21 27 26 30 32 29 30 34 42 46 49 57 64 64 63 64 64 64 64 66 67 67 68
15 16 16 15 18 23 21 22 24 23 21 18 23 19 19 18 19 19 17 17 18 19 35 38 38 39 39 36 32 32 43 49 51 60 63 63 62 61 61 63 64 65 67 68
13 15 14 15 16 25 18 24 23 22 22 24 23 20 18 18 17 19 18 16 25 37 38 38 38 38 39 41 39 36 37 48 52 56 64 63 62 61 61 62 63 64 65 66
15 17 16 16 23 27 25 20 18 23 21 17 18 19 16 16 16 19 19 25 36 38 38 37 37 38 38 38 41 43 41 39 51 55 61 63 62 62 60 61 61 63 65 67
18 19 20 28 23 20 19 17 14 10 13 13 18 18 17 20 20 24 24 34 38 38 37 36 35 35 36 37 39 42 44 43 44 54 57 64 63 63 60 61 60 63 65 66
19 16 19 25 21 21 19 19 17 12 15 11 15 15 16 21 23 33 39 39 38 37 35 37 39 40 40 41 42 44 45 45 42 46 54 59 63 62 60 59 60 62 64 66
22 23 26 25 25 23 21 17 20 17 20 18 19 20 21 21 26 36 36 36 35 36 39 39 39 41 42 43 43 45 46 46 47 42 52 56 59 61 60 60 62 63 65 66
25 23 26 26 26 25 23 23 20 19 12 10 16 19 19 22 21 29 33 32 34 39 40 39 38 41 43 44 45 46 46 45 46 48 47 54 58 60 59 61 63 64 66 67
27 26 25 27 25 23 20 22 27 23 21 16 16 15 26 25 26 29 32 34 37 39 39 40 40 46 46 46 46 46 47 47 47 50 47 54 57 59 60 61 63 65 66 67
30 28 26 26 27 26 23 24 24 21 20 25 23 20 25 27 29 35 35 34 38 41 42 41 44 48 46 47 46 46 49 51 48 48 48 55 59 60 61 62 64 66 66 67
32 28 23 20 20 26 26 27 28 29 29 25 22 19 26 33 34 31 33 38 40 43 44 44 47 46 44 44 45 46 50 57 55 49 54 58 60 61 62 63 65 66 66 67
36 30 26 21 20 23 25 26 27 30 27 24 24 23 26 28 30 33 37 40 42 44 46 46 45 45 45 44 46 47 52 58 56 53 57 60 62 62 63 64 65 66 67 67
31 27 30 29 29 30 30 30 29 28 28 28 26 26 27 30 31 37 40 42 40 38 42 45 44 45 45 44 47 47 55 60 58 56 58 60 62 64 65 65 66 66 67 67
35 28 30 29 31 29 25 26 28 29 29 29 30 30 32 31 38 38 37 37 37 40 39 42 45 45 44 46 46 48 56 59 64 62 60 63 64 65 66 66 66 66 66 66
29 28 27 21 25 27 25 26 26 27 29 30 28 29 31 34 37 35 35 37 38 38 39 40 44 45 46 48 48 48 57 61 65 64 64 64 65 65 65 66 66 66 65 64
29 30 31 26 28 21 22 28 32 31 30 30 30 32 32 35 37 36 37 38 36 38 40 41 41 40 41 44 48 50 56 59 63 64 64 65 65 64 65 65 65 65 63 63
32 32 31 27 24 24 24 29 33 30 29 32 32 33 37 36 37 36 37 35 37 40 40 40 40 41 41 44 46 48 56 58 62 64 64 64 64 64 64 64 62 62 62 62
35 34 32 30 23 16 25 34 37 35 28 34 36 36 36 37 35 35 37 39 39 41 40 40 41 42 42 44 46 48 55 58 58 62 63 63 62 62 62 62 61 61 61 60
32 32 28 28 26 28 32 37 38 28 25 35 38 38 38 37 38 39 40 40 41 41 40 42 42 41 43 45 46 51 57 57 58 62 63 62 62 61 61 61 61 60 60 59
31 30 28 30 27 22 39 38 33 33 35 37 39 39 39 40 40 40 41 41 41 41 40 40 41 41 41 44 47 51 56 59 59 60 61 62 62 61 61 60 60 59 58 57
25 29 26 31 27 34 38 38 37 38 38 40 40 42 42 41 41 41 41 41 41 40 39 40 39 40 41 45 48 53 56 58 59 60 62 61 61 61 60 60 59 58 58 56
30 33 30 29 31 32 34 37 38 41 41 41 42 43 42 41 41 41 41 42 41 39 38 39 39 39 41 46 47 54 59 59 58 57 59 61 60 59 60 60 60 59 58 58
30 31 30 30 32 35 36 37 40 39 40 42 42 43 42 42 41 40 40 40 39 39 39 39 39 39 42 45 47 55 59 59 58 57 60 60 59 59 54 50 55 59 59 58
33 32 32 32 36 37 37 39 41 41 42 41 41 40 37 37 36 36 37 39 39 40 39 39 39 41 42 46 50 54 59 58 58 60 59 59 58 57 55 54 51 41 43 45

GFSCGP_sfc_dewp_075.txt.gz
Dewpoint
21 20 19 16 18 17 17 18 16 17 18 21 19 19 19 21 23 22 23 28 30 29 28 27 31 36 38 45 49 52 53 59 66 66 65 64 63 63 63 64 65 65 65 65
18 14 17 17 17 17 19 17 16 19 21 20 18 19 23 23 25 25 24 24 30 30 28 27 33 39 44 46 52 53 55 55 60 66 68 67 66 65 65 65 67 66 67 67
16 14 19 17 15 18 19 18 18 17 21 21 22 14 19 21 20 24 25 25 26 27 26 33 39 44 44 46 48 50 53 55 58 62 63 68 67 67 66 65 66 68 68 67
17 16 15 15 15 19 16 21 19 21 18 11 20 8 16 18 21 21 23 24 24 25 34 39 42 42 43 43 45 48 53 55 52 55 59 66 61 62 63 66 66 67 68 67
13 14 15 15 14 21 16 23 22 20 18 20 15 16 14 21 17 19 22 24 26 29 37 40 39 40 41 42 43 46 51 54 55 56 58 55 64 62 64 64 70 71 70 69
16 17 16 16 19 25 24 21 20 22 19 12 14 14 10 14 19 21 20 22 27 34 38 39 39 41 42 43 44 46 50 52 54 54 55 60 64 65 61 65 65 65 66 69
17 17 18 26 22 21 20 21 14 10 8 5 19 15 14 20 20 19 19 23 31 36 37 37 39 40 42 43 44 45 48 51 53 53 54 56 61 66 67 67 64 66 64 66
17 14 19 24 21 18 21 21 17 13 7 6 14 12 12 19 21 23 25 34 37 35 35 38 40 41 42 46 47 47 47 49 51 52 53 54 59 55 60 66 64 64 64 66
25 21 25 25 25 23 21 20 22 19 19 17 14 14 17 18 21 26 28 34 32 35 37 40 41 43 44 49 50 50 50 50 51 52 55 55 55 59 61 66 66 64 68 66
25 21 25 25 26 25 25 25 23 28 18 14 9 12 12 17 19 25 26 29 32 34 36 40 42 44 46 48 48 48 49 50 51 52 53 53 56 56 60 64 66 65 67 69
28 27 23 27 24 20 23 24 28 27 24 15 10 11 23 23 23 27 29 33 30 33 37 40 42 43 43 42 43 47 46 48 50 52 54 55 56 57 61 63 65 66 68 69
31 31 24 23 24 27 26 25 26 23 17 23 21 19 24 26 26 33 30 28 31 39 39 40 41 43 43 43 44 45 46 46 50 53 56 58 58 58 61 64 65 67 68 67
35 29 22 19 24 29 27 26 26 28 29 25 22 19 26 29 28 28 31 33 37 38 38 40 44 43 43 43 44 44 45 46 48 50 56 61 59 58 62 64 66 66 66 67
35 32 26 21 18 28 25 25 26 27 29 24 23 23 26 29 30 32 34 36 39 39 39 39 40 39 41 43 45 44 44 46 47 49 55 61 61 59 62 64 66 67 67 67
33 30 29 28 27 26 25 23 23 25 28 26 26 26 28 30 32 34 36 38 37 37 37 38 39 41 42 44 46 46 45 46 47 48 52 61 61 61 62 64 65 67 67 67
36 28 28 27 28 28 28 27 27 26 27 25 27 28 32 32 32 33 35 37 37 37 37 38 40 42 42 44 46 46 46 47 46 48 51 59 58 58 63 65 66 67 67 67
33 31 29 22 22 24 22 23 24 24 26 28 26 26 29 31 32 33 35 37 37 38 38 38 41 43 45 46 48 48 48 49 48 49 51 58 58 59 63 64 65 66 68 68
30 30 30 24 24 21 20 27 29 28 27 28 29 30 30 32 35 36 37 37 37 38 38 40 42 42 43 46 48 48 48 48 50 50 54 57 58 61 64 65 65 67 66 68
32 32 30 27 26 23 23 25 30 29 27 30 30 31 31 32 35 35 37 37 39 40 41 41 42 43 43 45 46 48 48 50 50 60 61 60 61 64 64 64 64 65 66 66
35 35 32 32 27 24 29 32 36 35 27 34 34 33 34 35 33 32 38 40 41 42 42 42 42 42 42 44 45 46 49 52 59 63 62 63 63 64 64 64 65 66 67 66
33 32 29 28 26 28 31 34 38 29 27 37 36 35 37 37 37 41 42 42 41 42 42 43 43 41 42 44 45 47 48 53 59 60 63 64 65 66 64 64 66 65 64 62
30 30 31 32 29 25 36 36 33 35 38 37 38 39 40 41 41 41 41 41 41 41 41 42 40 39 43 43 44 47 48 53 59 59 62 63 64 64 64 65 64 62 62 61
30 33 32 34 31 36 36 37 38 39 40 39 40 41 40 40 40 40 39 39 39 40 41 41 39 39 41 43 45 46 48 51 59 61 62 62 63 63 64 64 64 62 61 61
29 33 31 31 30 33 36 38 40 41 41 41 41 40 40 40 40 38 39 38 37 37 37 39 39 39 40 43 44 47 49 56 57 59 61 62 62 62 62 63 63 62 61 59
32 34 32 32 34 37 38 39 41 41 42 42 40 37 35 35 36 38 36 36 36 37 37 39 39 41 41 42 43 46 50 57 58 58 60 60 61 60 57 55 59 59 60 57
37 35 33 32 37 37 38 40 42 42 40 39 38 38 38 39 38 38 37 37 37 36 37 39 41 42 41 42 43 46 49 56 58 60 59 60 58 58 56 56 54 42 45 45

GFSCGP_sfc_dewp_078.txt.gz
Dewpoint
21 18 16 16 16 15 15 15 14 15 16 17 17 16 16 18 17 18 19 22 25 28 28 29 31 35 40 53 53 55 56 61 56 55 56 59 63 65 64 64 66 64 65 66
17 15 16 16 15 15 15 16 15 15 16 17 17 15 17 17 18 19 20 22 23 27 29 28 31 38 45 48 51 55 55 57 57 60 65 58 63 60 66 65 67 65 64 66
15 13 13 14 14 14 15 16 16 15 16 17 16 15 15 16 18 20 20 25 25 26 27 30 36 42 44 46 48 49 53 55 57 60 59 63 64 65 63 64 66 68 67 67
14 14 15 15 14 14 14 14 15 15 17 12 16 10 15 14 17 19 21 23 24 24 29 35 40 41 44 44 45 48 52 54 52 56 59 62 57 60 60 63 65 67 70 68
13 13 14 15 14 15 16 16 17 18 18 17 14 12 13 16 16 19 21 21 23 25 30 34 38 41 42 44 45 48 52 54 55 57 58 57 59 56 58 58 66 73 73 70
17 16 16 15 16 17 17 19 19 19 17 13 13 11 5 10 15 20 19 15 20 28 31 36 37 39 41 43 44 48 51 53 54 55 56 59 60 62 55 60 62 64 64 68
17 16 17 18 17 22 21 21 14 8 10 10 16 14 13 17 17 16 17 19 21 24 32 34 35 37 41 43 46 49 50 53 54 54 55 56 59 62 65 65 55 62 61 62
16 14 17 20 19 18 19 20 16 13 7 5 13 12 14 17 17 18 21 26 27 31 30 33 35 39 40 43 46 49 50 51 53 54 55 55 57 54 53 60 57 55 59 64
23 19 19 21 21 22 19 20 20 18 18 14 15 15 17 18 18 19 22 27 27 30 32 33 35 40 42 45 47 47 48 50 51 52 55 56 56 59 57 63 66 59 66 62
24 23 21 21 25 24 23 20 19 23 20 17 10 11 9 17 17 19 22 25 27 32 28 32 36 40 43 44 46 46 46 45 48 51 52 53 55 56 57 61 64 65 67 68
25 26 21 25 23 20 22 20 22 25 25 19 12 8 22 21 23 26 26 27 30 29 29 33 35 37 39 41 41 44 45 46 48 49 51 54 55 56 57 59 59 62 67 66
26 28 22 20 21 23 23 21 22 25 20 21 18 16 23 25 24 27 28 28 29 31 32 34 35 37 38 41 39 40 44 45 47 47 50 53 55 57 60 60 62 64 65 65
29 27 23 20 21 27 26 24 24 26 28 25 21 17 24 25 26 28 30 30 31 34 35 36 35 36 38 38 39 39 42 44 46 46 48 52 54 57 60 62 63 62 64 64
34 31 26 22 19 26 25 22 23 25 29 24 19 20 24 26 27 30 32 33 34 35 37 36 37 37 37 39 41 40 41 44 47 46 48 51 54 56 60 63 63 62 61 61
34 30 28 25 23 23 22 22 21 22 26 22 19 21 26 28 29 30 32 33 34 35 35 36 37 38 39 41 43 42 42 44 46 46 47 50 53 55 59 62 62 62 62 61
29 26 27 23 21 21 23 26 23 21 21 20 20 22 24 26 27 29 30 32 33 34 35 37 38 39 40 42 44 43 43 45 46 46 47 49 51 54 58 63 62 63 62 64
28 30 29 24 21 21 23 21 21 21 21 22 21 23 25 27 28 31 32 33 34 35 36 37 39 40 42 44 45 44 45 46 46 47 47 48 51 53 57 61 61 64 67 70
29 28 31 25 23 22 19 21 25 25 25 25 25 26 26 28 31 31 31 32 35 36 37 39 40 41 43 45 49 49 49 48 48 45 45 48 51 53 58 61 62 67 70 71
30 30 30 28 25 23 22 25 25 27 26 26 26 26 30 32 32 33 31 33 36 38 40 41 41 42 44 43 47 48 48 48 47 47 48 51 52 54 60 59 65 69 70 70
38 36 32 32 28 25 29 29 33 31 26 35 35 34 34 33 27 26 35 39 39 41 42 42 41 41 42 45 47 46 47 48 49 51 52 52 52 57 60 64 68 69 70 69
33 33 30 27 31 28 29 34 36 31 31 37 35 34 34 36 37 41 41 40 42 41 40 40 39 39 42 44 45 44 46 48 50 51 51 55 60 61 63 66 66 67 67 67
33 31 32 34 31 28 35 34 32 36 39 40 40 38 37 37 39 38 38 37 37 37 36 36 36 37 40 43 44 44 47 49 50 60 61 62 63 63 64 65 66 66 66 66
32 31 34 33 33 35 37 38 40 40 41 39 39 39 40 38 37 36 34 35 34 35 35 35 35 37 39 41 46 46 48 49 51 60 62 64 64 64 65 65 64 64 66 63
31 32 31 33 32 34 38 40 40 39 39 40 39 38 38 37 37 34 35 37 37 39 37 37 37 38 39 41 43 47 47 49 52 58 61 63 64 64 65 66 65 64 63 62
32 35 35 33 33 36 37 39 40 41 42 40 34 34 35 36 37 38 39 39 37 38 37 37 38 38 39 41 44 45 48 48 52 59 61 62 62 62 61 60 64 63 66 60
37 36 34 33 36 35 36 39 42 42 38 36 39 39 40 39 38 37 36 36 37 37 37 38 39 40 41 43 43 44 45 48 53 59 60 58 59 60 61 61 57 45 48 47

GFSCGP_sfc_dewp_081.txt.gz
Dewpoint
21 17 15 15 16 15 14 14 14 13 12 14 15 16 16 17 15 17 21 23 24 26 30 30 35 37 44 49 56 56 57 63 62 56 59 59 61 65 68 66 69 68 66 67
17 14 15 12 16 16 14 12 12 13 13 16 17 17 17 17 17 18 19 21 22 23 27 31 34 40 45 49 53 59 56 58 62 61 64 60 60 57 59 65 69 68 68 68
15 14 14 13 14 14 13 13 14 14 16 17 17 16 17 16 17 17 18 20 22 24 25 32 32 39 43 47 49 50 55 55 59 63 62 62 61 63 60 63 68 68 68 69
15 14 12 13 13 13 14 13 13 15 16 11 16 11 17 17 17 18 19 21 23 26 28 31 35 41 43 42 44 48 52 58 55 57 61 61 59 55 57 65 65 63 66 69
16 13 13 14 13 14 14 15 16 17 17 16 14 11 13 15 15 17 21 23 25 26 29 30 35 39 40 44 45 48 51 58 60 59 61 59 60 55 56 62 67 68 67 71
17 17 15 14 14 14 16 15 17 18 16 13 14 13 10 10 16 17 21 20 19 23 26 31 37 40 40 41 43 47 51 55 59 60 60 62 62 61 59 61 62 65 65 66
19 16 16 16 15 17 16 20 14 12 11 11 14 11 12 15 15 15 21 19 18 21 24 31 35 34 37 40 43 45 50 52 56 58 59 58 62 63 64 63 60 62 65 64
17 14 14 17 17 17 16 22 20 18 14 10 14 15 14 17 16 18 17 20 24 24 25 31 33 34 35 39 42 45 48 50 51 53 55 59 61 54 55 61 60 59 58 61
24 19 16 16 20 19 18 16 19 20 19 15 15 15 16 20 19 19 19 23 28 29 31 31 30 33 36 40 44 46 48 48 49 49 53 56 59 61 59 63 64 61 63 60
23 21 19 18 21 21 21 19 19 28 21 16 11 12 12 19 19 19 20 23 26 27 27 31 29 32 36 39 44 46 46 46 47 48 49 50 55 57 60 61 63 63 63 65
24 26 22 21 19 19 18 18 20 20 21 22 19 17 23 25 23 22 24 26 26 28 28 28 28 30 33 35 36 42 43 43 45 46 48 52 51 53 58 60 61 62 64 64
25 28 24 20 20 21 22 20 26 29 21 16 14 12 27 30 23 25 26 27 28 29 29 29 30 32 33 35 36 39 43 41 42 44 46 50 50 52 58 59 61 63 63 63
28 29 26 23 21 22 21 20 21 23 24 24 23 23 27 27 27 26 26 26 28 30 31 31 32 33 34 35 37 38 40 41 41 42 43 51 52 53 57 59 61 64 63 63
34 29 27 22 20 33 33 30 28 25 30 23 18 20 22 24 22 25 28 30 31 31 32 33 34 34 35 37 37 37 39 41 42 42 44 49 52 54 56 57 59 62 63 62
32 26 27 26 24 25 25 22 17 18 22 22 23 18 21 24 22 24 29 29 28 30 32 33 35 35 37 39 40 39 40 41 43 42 42 48 51 52 53 56 57 61 63 64
32 34 29 24 22 21 19 20 17 17 17 19 22 24 25 21 17 20 24 28 32 30 31 33 35 36 36 39 40 41 42 43 43 42 42 46 48 48 53 56 57 60 63 65
26 26 29 25 23 22 23 21 20 20 20 19 16 19 23 20 23 28 31 31 30 30 31 33 34 35 39 43 46 45 44 44 44 43 43 45 46 47 49 52 54 58 63 66
28 26 29 28 26 23 20 25 20 24 21 22 27 29 29 28 29 31 32 32 30 32 36 39 37 40 42 44 48 48 46 46 46 44 43 44 44 45 45 49 54 59 62 65
28 30 32 27 25 21 19 25 30 34 32 28 32 33 34 35 33 32 30 30 37 39 41 40 39 41 44 46 47 48 48 48 50 48 46 45 46 45 46 49 54 59 63 65
37 38 35 30 28 24 32 38 39 31 25 39 39 35 34 34 28 26 33 36 37 39 39 39 39 40 43 46 48 46 47 47 48 48 48 47 47 47 49 52 55 60 64 64
33 34 33 28 31 28 34 34 33 29 32 38 36 36 36 35 36 40 40 40 39 39 38 36 36 39 43 45 45 43 44 46 48 50 50 48 49 50 52 55 58 62 65 67
35 31 34 33 32 30 37 34 34 38 40 38 37 36 36 38 39 38 37 39 38 38 35 34 36 39 42 42 43 43 44 47 51 51 50 48 48 52 55 58 62 65 67 68
32 34 36 33 34 36 38 39 41 42 39 39 38 38 38 38 38 35 35 36 36 36 37 36 36 38 41 43 43 42 44 48 51 50 52 53 51 52 51 59 64 66 66 66
31 33 31 34 33 34 37 37 37 40 40 40 39 41 41 38 36 36 37 37 37 37 37 38 38 38 40 42 42 43 45 51 51 52 58 55 53 52 56 64 65 64 65 65
34 34 35 32 32 35 33 37 39 40 41 42 43 39 37 37 35 36 36 36 35 36 37 37 37 38 39 41 42 44 47 50 51 56 60 62 64 64 63 62 63 65 68 64
36 36 35 32 36 36 37 38 39 40 40 41 41 40 40 39 36 34 35 36 36 36 37 38 39 41 41 41 41 44 44 48 53 57 59 60 61 60 60 59 55 44 46 46

GFSCGP_sfc_dewp_084.txt.gz
Dewpoint
20 18 16 16 16 14 14 14 13 14 14 13 13 12 13 16 16 18 22 27 29 31 33 38 43 48 54 57 60 63 64 64 66 62 62 65 66 71 70 71 71 70 69 68
17 16 17 14 13 11 16 16 14 12 11 12 13 13 16 17 19 21 22 23 27 30 31 36 41 46 53 57 59 61 61 63 65 61 64 66 63 64 65 69 71 70 70 69
16 15 14 13 14 13 14 14 14 12 13 14 15 16 18 18 20 21 22 24 25 27 29 35 39 45 50 54 56 57 60 59 61 64 60 60 61 61 62 61 62 70 71 68
15 14 13 13 12 12 12 12 12 13 14 11 16 13 18 18 19 19 20 22 23 25 29 35 39 45 50 49 53 55 58 60 56 63 61 61 59 58 59 60 61 64 71 70
16 15 13 13 12 14 13 13 14 15 15 16 14 13 16 18 16 18 22 23 23 25 29 33 34 39 43 48 51 56 57 59 61 61 61 62 62 62 60 61 61 63 67 69
17 17 16 15 14 14 14 14 15 16 14 13 14 13 14 15 18 18 19 22 25 25 27 33 37 42 44 44 47 54 57 61 62 62 61 59 63 62 61 60 62 62 61 62
19 18 18 17 15 16 15 17 14 13 13 14 16 17 23 25 19 18 22 22 22 20 24 29 34 39 44 44 47 51 54 57 61 61 62 61 61 62 62 62 61 59 58 62
17 15 16 17 16 18 17 18 16 18 20 18 18 21 21 25 26 19 19 24 21 21 23 28 32 39 38 43 48 48 52 56 57 58 59 62 62 60 59 60 60 60 57 57
21 18 18 18 17 17 20 19 18 19 25 25 24 17 17 24 25 23 18 21 23 26 32 29 31 35 41 43 50 52 53 54 56 55 57 60 61 62 59 60 62 61 63 61
22 20 19 17 18 18 21 20 17 21 23 20 14 14 15 24 25 22 20 22 25 29 29 28 33 38 40 41 47 53 52 52 52 54 56 52 56 59 59 61 60 60 61 62
22 24 21 21 20 18 20 24 22 21 22 22 18 15 31 29 27 26 27 22 26 27 26 27 30 34 34 38 35 48 50 50 51 53 55 56 54 54 56 58 59 61 62 61
26 28 23 26 25 21 22 24 28 28 26 28 24 23 30 29 30 34 30 24 25 30 29 28 30 33 34 36 37 41 50 47 48 50 50 52 56 56 57 56 58 60 61 62
29 28 26 23 23 25 33 32 32 33 34 28 26 23 25 32 38 39 35 32 34 30 29 28 30 33 34 35 38 37 43 43 44 45 46 53 54 55 55 57 57 58 59 60
34 29 26 23 20 26 28 30 31 32 32 30 26 21 21 28 34 34 34 37 39 33 32 31 33 33 36 38 37 38 41 43 45 43 46 51 54 54 53 56 58 57 57 57
32 31 30 27 23 22 19 22 21 30 32 31 26 19 22 26 28 32 35 38 33 25 30 32 33 37 41 42 43 41 41 42 44 46 45 50 53 53 52 52 53 55 56 56
38 35 32 25 24 22 18 18 16 15 19 25 17 18 20 23 24 23 26 26 29 32 31 34 35 36 38 42 43 44 46 47 46 45 45 46 47 47 50 52 52 52 52 56
26 23 25 21 20 21 25 26 24 19 23 20 21 30 35 36 32 35 36 36 37 34 35 34 37 40 45 46 48 48 48 48 47 47 45 45 45 45 47 48 49 50 52 54
25 25 25 25 23 21 20 23 26 26 28 32 35 37 39 40 37 35 35 37 36 33 35 38 40 43 45 46 47 48 47 49 48 47 46 45 44 44 45 47 48 50 49 51
30 28 32 28 25 22 19 33 34 34 33 39 39 37 35 34 33 34 33 34 37 39 39 40 40 42 43 43 44 46 46 47 48 47 46 45 44 43 44 46 47 49 49 48
37 39 36 31 26 21 34 39 39 37 34 38 37 35 34 33 29 28 38 38 39 40 41 39 40 41 41 43 47 45 44 44 48 46 45 46 46 46 46 47 48 48 48 48
35 34 30 29 30 27 37 38 36 28 34 39 36 36 35 35 35 39 40 40 40 39 38 39 39 39 41 43 43 42 42 42 46 48 48 48 50 51 50 49 48 48 48 48
33 32 33 34 31 28 41 38 35 39 39 38 39 38 37 39 39 39 40 40 40 39 38 37 37 38 40 41 41 41 41 44 47 46 47 48 49 50 49 49 47 45 48 50
32 36 36 35 34 39 38 38 39 39 38 38 37 36 37 38 39 41 40 39 37 37 37 36 37 39 40 41 42 41 41 44 46 48 47 48 48 48 48 48 46 47 51 52
31 31 31 34 32 32 35 36 37 37 37 37 36 39 40 40 40 39 38 37 37 37 36 37 37 37 39 41 41 42 44 45 48 49 48 50 52 50 46 47 48 49 55 56
34 35 34 31 31 34 32 36 37 37 38 40 40 39 37 36 35 35 36 36 36 35 36 37 37 38 39 40 41 43 44 48 49 51 53 51 49 48 46 47 49 55 59 60
35 37 35 34 35 36 36 38 38 39 40 41 39 37 35 34 34 36 35 35 35 35 37 37 38 39 40 42 43 43 45 48 52 53 58 56 53 53 52 54 55 43 52 50

GFSCGP_sfc_dewp_087.txt.gz
Dewpoint
20 18 18 18 17 15 14 14 16 17 17 12 11 12 15 17 18 17 19 22 27 27 31 37 46 49 52 55 56 55 55 58 65 66 67 62 69 69 68 69 67 67 67 68
18 17 19 19 18 16 15 13 14 17 15 12 13 14 16 17 19 20 20 20 24 29 31 40 45 46 50 52 53 55 59 60 61 59 60 61 61 65 67 67 68 69 68 66
17 17 17 16 15 14 13 13 16 16 16 15 15 14 15 19 20 18 18 21 21 26 32 37 42 46 51 52 51 52 52 55 58 60 57 56 55 57 57 60 61 67 69 68
14 16 15 14 14 13 12 15 13 15 17 14 17 13 16 18 17 17 16 18 19 20 29 35 40 49 50 50 49 50 53 52 52 57 58 56 56 54 51 53 57 58 60 67
16 17 16 15 15 15 13 16 15 16 15 14 14 13 13 19 18 18 18 18 24 22 26 38 43 46 47 49 47 47 50 52 52 54 55 57 57 58 59 57 54 54 59 65
18 18 17 17 17 16 16 16 15 17 15 13 13 14 13 14 21 25 24 21 25 27 33 35 37 43 44 43 44 49 49 50 53 54 55 55 56 59 58 57 57 60 60 60
18 18 19 19 17 17 17 15 14 13 13 13 15 15 16 26 29 28 27 25 27 26 31 33 36 40 40 40 44 48 49 50 54 54 56 56 55 57 58 59 59 59 57 54
19 18 20 20 18 17 19 18 16 17 17 17 19 20 21 26 29 27 26 24 25 20 25 31 38 38 40 40 43 45 46 46 54 56 55 57 57 57 57 58 59 59 58 57
21 18 21 19 18 18 19 19 21 22 24 23 22 23 25 25 26 26 25 26 23 23 24 26 33 39 39 41 44 44 45 46 51 54 55 54 55 55 56 56 56 59 60 60
24 22 21 20 20 20 19 21 20 26 25 23 22 21 20 26 27 28 29 26 24 29 28 28 31 33 34 35 40 47 46 45 47 50 48 50 54 56 57 58 57 57 57 58
24 24 24 25 22 23 23 22 27 33 30 25 21 18 26 31 33 32 33 33 33 32 27 28 26 33 34 35 33 42 47 47 49 48 51 50 49 50 50 55 57 59 59 59
25 25 24 26 27 26 24 31 34 32 31 32 32 28 30 31 34 34 32 35 35 34 36 37 31 29 34 35 33 34 47 46 48 48 50 50 51 52 52 52 53 55 57 60
29 29 26 26 24 26 32 32 33 36 36 31 29 28 33 35 33 31 34 35 35 36 35 38 40 38 33 32 34 34 40 46 45 48 45 45 48 46 46 47 52 54 54 56
38 28 29 29 27 27 27 26 25 34 32 30 31 30 30 30 33 33 36 35 36 33 33 37 39 41 35 34 36 37 38 40 43 44 44 46 48 47 49 51 50 52 54 55
33 30 32 32 32 32 30 24 22 21 25 30 26 27 27 30 33 29 36 35 34 32 33 32 31 38 36 38 40 41 40 40 43 43 42 41 48 48 48 48 48 50 51 51
32 32 33 30 27 22 18 19 21 22 24 24 25 26 36 36 37 36 35 35 36 37 40 38 42 40 43 43 44 44 46 45 44 45 45 45 47 48 49 50 50 52 51 49
25 26 23 20 22 21 21 20 23 28 33 34 31 36 38 38 39 38 36 36 37 40 40 39 37 40 41 43 45 45 45 45 45 47 46 46 47 47 46 46 49 48 47 48
25 25 24 22 25 19 22 33 32 35 35 37 39 40 39 38 40 40 33 35 37 40 40 38 37 37 39 41 43 46 47 46 46 44 44 44 45 45 45 46 46 46 46 47
34 29 24 23 22 24 24 36 34 35 36 39 38 38 36 36 35 33 34 35 35 37 37 38 39 39 38 38 40 42 42 43 44 44 43 43 44 44 44 44 44 44 45 45
36 36 28 24 20 17 34 39 39 39 32 37 37 36 36 37 34 34 38 38 38 38 38 38 38 37 37 37 38 40 44 42 45 47 46 46 44 44 44 44 43 43 43 43
33 31 25 26 22 28 39 40 39 31 33 36 36 36 36 34 35 36 37 36 37 39 39 39 38 36 36 37 37 37 38 40 42 44 44 43 44 47 48 45 44 43 44 44
29 27 29 33 28 21 38 37 34 37 36 36 35 35 34 35 36 38 38 39 40 39 40 38 36 35 35 35 36 38 38 40 43 44 44 44 46 48 49 51 49 47 45 44
29 35 34 31 31 38 35 37 37 36 35 35 36 36 37 36 36 35 35 35 35 36 36 36 35 35 36 36 37 37 38 41 43 44 45 47 48 49 48 48 49 50 47 44
32 35 31 33 33 33 33 36 36 37 36 36 36 39 38 37 36 34 35 33 33 34 35 34 34 35 35 37 38 39 40 42 43 44 44 45 47 47 47 48 49 49 47 44
37 36 33 31 31 34 34 36 37 37 37 38 40 38 38 37 34 35 35 34 33 35 35 35 35 36 36 38 38 40 42 45 46 47 47 48 48 49 50 48 47 47 46 44
36 35 33 32 34 36 36 38 38 38 37 38 40 38 38 38 35 35 35 36 35 36 36 36 37 38 38 39 40 41 44 45 46 47 47 50 48 47 49 49 47 43 44 43

GFSCGP_sfc_dewp_093.txt.gz
Dewpoint
21 15 14 15 17 16 16 14 14 15 16 16 14 14 15 16 16 16 18 20 21 22 25 31 36 38 47 52 52 58 62 63 65 65 65 65 66 65 66 67 67 67 68 69
17 15 17 18 19 19 19 17 17 18 17 15 15 14 16 17 17 18 19 21 21 22 22 26 35 44 49 51 53 54 59 63 64 63 61 59 60 64 65 66 67 66 66 66
15 16 20 18 18 18 18 19 18 16 16 17 16 15 15 18 20 19 20 22 22 22 22 24 29 42 49 51 53 53 57 60 61 59 56 55 56 57 60 62 65 67 67 64
17 17 17 15 17 16 14 16 16 15 16 12 15 10 14 15 16 18 18 19 20 20 22 23 30 38 48 50 54 56 56 57 57 57 54 53 54 54 53 54 55 60 67 67
18 15 16 16 16 18 16 19 18 18 16 14 14 13 13 15 15 16 18 19 21 22 24 25 25 33 42 50 52 54 54 52 55 56 54 53 53 54 55 56 56 54 56 59
17 20 18 17 17 18 21 18 18 17 14 13 13 12 12 14 14 16 19 22 26 28 30 36 36 27 45 50 50 49 49 49 50 54 54 54 53 54 54 54 54 54 56 58
18 18 19 20 17 19 19 17 15 15 15 15 17 15 15 17 18 19 19 20 27 27 32 41 40 42 48 47 47 48 47 48 49 48 51 52 52 52 53 54 54 54 55 55
17 16 19 23 18 17 18 17 17 16 16 16 22 21 21 22 22 23 27 29 28 27 32 40 44 45 45 44 45 47 47 47 49 49 48 50 50 51 52 52 54 56 56 57
21 21 24 24 24 21 21 18 19 19 25 23 24 27 29 29 28 30 32 32 29 27 30 36 38 41 43 43 45 46 48 46 49 50 50 51 52 52 52 53 54 55 55 56
26 23 25 26 27 25 22 24 22 25 24 22 25 27 27 27 30 33 33 34 34 34 32 32 34 38 40 40 41 43 45 43 45 49 50 50 52 53 53 54 54 54 54 55
26 26 25 28 27 25 25 28 33 32 31 28 25 25 26 30 32 34 33 34 36 37 35 35 36 37 36 35 37 41 43 45 43 45 49 50 52 53 54 53 52 52 53 54
32 30 27 26 28 29 27 27 31 31 30 33 31 26 30 31 34 33 33 34 36 36 35 36 37 38 38 38 37 35 41 43 44 44 45 50 51 52 53 53 52 53 53 54
30 29 28 26 26 31 31 32 32 34 33 26 25 24 30 31 31 32 33 34 35 36 37 34 35 37 36 35 36 37 37 41 43 43 43 47 49 50 50 51 52 52 53 53
34 35 34 29 29 31 31 31 31 33 30 27 28 27 26 27 29 30 35 39 39 40 38 35 34 37 38 35 34 36 37 36 39 42 43 44 47 48 48 48 48 49 50 51
34 31 30 27 24 28 30 29 28 28 28 26 23 24 26 36 36 39 39 41 40 39 40 40 40 40 40 39 40 41 42 44 42 41 45 45 45 46 47 47 47 48 48 50
29 26 29 23 23 23 23 25 25 24 21 20 27 30 38 40 40 38 39 38 37 37 38 39 41 40 38 38 39 41 42 43 43 44 43 46 47 47 47 48 48 47 48 49
23 25 26 21 22 23 22 23 26 25 34 34 29 34 38 37 35 36 37 36 36 38 37 37 37 37 38 38 39 40 41 43 43 43 44 45 46 46 46 47 47 46 46 47
23 24 24 21 23 18 22 37 36 35 37 38 37 36 35 36 36 35 33 34 36 36 35 36 36 36 36 37 38 40 41 41 41 42 42 43 44 45 46 47 47 46 45 45
25 25 25 23 21 23 27 38 35 34 33 38 37 34 31 32 34 29 31 34 34 34 35 37 37 37 38 37 38 41 41 40 40 40 40 41 43 43 43 44 45 46 46 45
33 32 28 22 23 18 28 37 37 38 31 36 33 30 32 33 28 29 32 34 33 34 35 34 33 35 35 34 36 37 38 40 40 40 41 42 42 43 43 43 43 45 45 44
31 27 25 28 26 26 37 36 36 29 27 34 32 32 33 31 31 33 34 35 35 33 35 34 35 33 34 35 36 36 37 38 39 40 40 40 40 39 39 39 39 40 43 44
27 30 28 30 28 24 37 33 29 31 34 34 34 34 34 34 34 35 36 35 36 36 34 33 34 33 34 34 34 33 34 36 37 39 40 40 39 39 39 38 38 39 42 44
28 32 27 31 28 34 34 33 36 36 36 35 36 36 36 35 36 34 34 37 35 32 33 35 32 33 34 34 35 36 37 37 38 38 38 38 38 38 37 39 40 41 41 40
30 35 32 32 33 33 33 36 36 36 37 38 37 37 38 37 37 38 36 34 34 34 34 32 33 34 35 37 37 37 38 39 40 40 40 41 42 43 44 45 45 42 40 40
31 34 31 30 30 33 35 34 36 38 37 37 37 37 38 39 38 38 36 34 34 34 33 35 34 34 35 36 37 38 39 41 41 42 42 43 44 45 45 46 47 47 47 42
36 32 25 26 31 34 34 36 37 37 37 38 37 38 39 38 39 37 36 35 34 34 35 35 35 35 36 37 38 39 41 43 44 44 44 45 45 46 47 46 46 44 44 43

GFSCGP_sfc_dewp_096.txt.gz
Dewpoint
20 15 13 13 15 16 16 15 15 17 17 17 16 17 16 17 16 16 18 20 22 24 26 28 31 38 41 44 52 61 64 65 66 66 66 67 67 67 67 69 68 69 69 69
17 15 16 17 18 17 18 17 17 19 19 17 17 16 16 17 17 17 18 19 20 23 24 26 28 32 43 47 50 56 62 63 66 67 64 65 65 65 66 67 67 68 69 70
16 15 19 17 17 18 17 19 18 18 19 17 16 15 16 17 20 19 20 22 23 23 23 25 26 30 37 45 50 53 59 63 64 64 60 58 60 61 64 65 66 67 67 67
16 17 16 17 16 16 14 19 18 18 17 13 15 12 15 15 16 18 18 18 20 21 23 25 26 29 33 40 48 53 55 61 64 62 60 58 58 57 60 62 62 66 67 67
16 17 17 16 15 18 17 19 18 18 17 15 14 13 14 18 15 16 17 19 20 21 23 24 27 29 32 38 46 52 54 58 60 60 61 57 56 56 55 56 57 58 62 66
18 20 17 16 17 18 19 18 19 18 15 13 15 14 15 15 15 17 18 20 21 22 26 29 33 39 40 35 44 52 54 55 57 58 57 57 56 55 55 56 55 56 57 58
19 19 19 19 17 18 19 17 15 15 15 15 17 16 17 18 18 20 20 26 30 31 29 30 37 42 42 42 49 51 53 53 54 55 55 55 56 56 55 54 54 55 55 57
17 17 19 20 18 17 17 17 17 15 15 15 19 20 21 22 28 32 35 35 35 34 33 30 40 44 46 48 49 50 49 49 50 51 52 53 53 52 52 52 54 54 55 55
22 21 26 26 24 20 20 17 19 19 22 22 22 24 28 31 32 32 34 35 34 36 36 34 35 42 45 45 46 47 47 47 48 48 49 50 50 50 50 52 53 54 55 56
26 24 26 26 28 26 23 25 22 26 25 21 22 25 24 28 29 33 33 32 33 36 36 36 36 37 43 43 44 45 47 47 50 52 51 50 51 51 51 52 53 55 55 55
28 29 29 28 27 25 25 31 31 31 31 26 22 24 30 29 31 34 32 31 32 35 37 37 37 37 38 39 41 43 44 47 47 47 50 51 51 52 53 53 54 54 55 55
31 32 32 30 30 30 32 31 30 31 30 34 32 26 31 33 34 34 33 31 32 35 37 39 38 39 39 39 39 39 45 46 44 46 47 49 51 53 54 54 54 54 54 54
34 32 28 27 27 33 33 34 35 36 34 29 25 24 29 30 30 29 31 35 37 39 40 39 39 39 38 39 38 37 39 41 45 46 46 47 49 51 53 54 54 54 53 53
39 35 31 25 30 33 32 33 35 35 30 27 28 27 28 30 37 38 39 39 38 40 42 41 40 41 40 40 40 41 40 40 40 43 46 46 47 49 51 52 53 54 54 53
37 33 34 34 29 29 25 22 24 26 30 27 25 24 24 37 38 39 40 40 37 37 40 42 42 40 40 39 39 40 41 43 45 44 44 45 47 48 49 50 51 52 53 53
38 30 29 25 22 23 24 25 25 26 25 24 25 24 38 38 38 36 37 35 32 32 38 38 38 38 38 37 38 39 39 40 42 43 43 46 47 49 49 50 50 51 50 51
26 29 23 20 23 24 22 23 24 26 31 32 30 33 35 33 32 33 35 32 30 32 36 35 35 35 37 38 39 39 40 41 42 42 43 43 45 47 48 49 49 50 50 50
25 23 23 22 24 19 24 37 35 34 36 37 37 36 35 34 31 33 33 32 32 35 34 33 33 35 38 36 36 37 39 38 38 41 41 41 42 43 45 47 48 49 50 50
27 25 23 23 22 23 27 36 35 33 32 38 36 33 29 29 32 28 30 34 33 33 33 34 34 35 35 35 36 38 37 36 37 38 39 39 39 41 43 44 47 48 48 48
32 32 28 25 19 19 26 37 37 37 29 35 33 30 30 32 27 26 29 33 33 35 35 35 35 34 36 35 37 36 35 36 37 37 38 40 41 42 42 44 45 47 48 47
32 29 26 25 22 28 35 37 36 28 25 34 33 33 33 32 31 33 34 35 36 36 35 35 36 36 35 34 34 34 35 36 38 39 39 39 41 42 43 44 46 46 46 46
31 31 28 31 24 21 36 34 31 31 34 35 35 35 33 33 35 35 34 35 36 37 36 36 34 33 33 35 34 34 35 36 37 38 37 37 38 38 37 40 40 41 42 42
28 31 27 28 26 32 34 33 34 35 35 35 36 36 36 35 35 38 38 38 37 38 36 33 33 33 34 34 35 35 36 37 38 38 38 38 39 38 39 40 40 39 40 39
30 34 30 30 32 33 33 35 36 35 36 37 38 37 37 37 38 38 38 38 38 36 34 33 34 34 33 34 35 36 37 38 39 39 39 40 40 40 40 39 39 38 38 38
29 33 30 30 29 33 35 34 35 36 37 37 36 37 37 38 38 39 37 38 37 36 36 35 34 34 35 35 36 37 37 39 39 40 41 42 43 43 43 44 44 44 45 40
34 34 29 26 31 34 33 35 36 37 37 37 37 37 38 39 39 38 37 37 37 36 37 36 35 35 35 36 36 37 38 40 40 41 43 44 44 45 44 44 45 42 43 42

GFSCGP_sfc_dewp_102.txt.gz
Dewpoint
22 17 15 14 14 11 10 10 11 13 15 18 18 17 18 20 19 19 21 22 23 25 26 29 33 38 41 45 51 56 57 68 70 69 68 68 67 67 67 67 68 68 66 66
21 16 16 15 16 14 14 14 15 16 18 18 19 18 19 20 21 21 21 23 24 25 26 28 31 34 41 46 51 54 58 62 68 68 68 66 65 65 67 67 69 68 67 68
19 15 17 16 17 17 16 15 16 17 18 18 20 19 19 18 20 22 22 23 24 25 27 29 31 36 40 43 48 52 56 60 63 68 66 68 68 68 66 67 67 68 68 68
18 17 16 16 16 15 15 14 16 18 18 14 17 14 20 19 19 22 24 23 24 25 28 31 34 36 39 40 41 48 54 59 59 64 67 71 66 64 64 66 66 67 68 67
15 17 17 17 15 15 16 15 17 18 19 20 19 17 19 21 20 22 24 25 27 32 33 35 37 39 39 42 43 47 53 57 60 62 67 64 68 61 61 62 70 71 71 69
19 20 19 19 18 18 19 19 21 22 20 18 19 18 18 19 22 23 24 25 30 34 35 37 39 39 39 40 43 49 54 56 58 60 62 67 69 68 61 63 63 64 67 70
21 20 20 21 20 21 21 23 18 17 16 17 21 19 21 25 24 25 25 26 34 33 32 34 36 38 41 43 46 49 52 55 57 57 58 60 66 70 71 70 64 67 65 65
20 18 19 20 21 20 21 23 19 19 19 20 23 21 22 25 25 28 31 33 32 33 33 34 35 37 39 42 45 46 50 53 55 57 58 59 60 59 63 67 64 63 62 64
25 24 23 23 24 23 25 24 25 25 25 21 22 24 25 26 27 30 31 32 33 35 35 33 34 37 40 42 45 46 49 52 55 57 58 59 60 61 62 68 69 65 68 62
33 32 31 30 27 26 26 26 27 26 27 25 21 22 22 27 28 31 32 31 33 35 33 33 34 38 40 41 44 46 48 48 51 53 55 57 60 62 65 67 67 65 64 62
32 32 30 28 27 26 26 28 30 32 31 29 25 23 31 30 32 33 32 32 34 34 33 33 35 38 40 41 42 45 47 46 46 49 52 55 58 59 62 63 63 61 60 57
33 36 31 29 30 29 29 29 29 34 32 33 34 30 31 34 33 33 32 32 32 34 34 34 37 39 41 42 43 43 46 45 46 48 50 52 53 54 55 56 56 57 58 57
38 37 30 27 29 31 30 30 31 32 37 35 31 27 34 33 33 32 29 31 34 36 36 35 36 37 39 42 43 43 44 44 44 44 46 51 53 54 55 55 57 55 57 57
40 36 33 28 28 31 32 30 33 36 34 31 31 30 30 31 28 27 32 36 37 37 36 35 34 35 38 39 39 40 42 43 44 45 43 46 50 54 54 56 55 55 54 53
40 35 33 30 30 28 28 30 30 29 35 34 29 28 29 25 26 32 36 37 36 35 34 35 34 35 37 38 38 38 39 41 43 43 44 46 46 49 51 52 54 54 53 52
40 34 31 27 24 23 22 22 22 21 21 24 26 23 23 30 33 35 35 34 33 33 33 33 34 34 35 36 37 38 39 40 41 41 41 43 44 44 47 50 53 54 52 53
38 31 31 24 21 21 20 20 22 23 22 21 20 23 29 32 34 35 34 33 33 34 33 33 34 35 37 37 39 39 40 41 40 40 39 40 41 42 43 46 48 51 53 55
37 34 32 26 24 19 23 31 30 29 28 27 28 30 31 32 33 32 32 34 33 34 34 34 34 36 37 38 39 41 41 41 40 39 39 39 39 40 41 43 46 50 52 54
33 34 34 30 25 23 21 26 32 31 31 31 33 34 32 33 33 33 32 33 35 36 36 36 35 36 38 38 39 40 41 40 39 39 39 39 39 39 40 41 45 48 49 51
36 38 36 33 28 23 32 35 35 34 29 36 35 34 33 33 30 30 34 36 37 37 36 35 36 37 38 40 42 41 41 41 40 39 38 38 38 40 40 43 45 46 47 48
34 35 32 30 31 27 33 35 35 30 34 37 35 35 34 33 34 37 37 37 37 36 36 37 37 39 40 39 40 40 40 41 41 41 39 39 40 41 42 44 45 45 46 46
33 33 33 33 31 27 36 35 32 38 39 37 36 35 33 34 35 36 36 35 35 35 36 37 38 38 40 38 38 40 39 41 40 41 40 40 41 41 39 44 44 45 46 46
32 35 37 36 35 37 39 38 39 39 37 36 34 33 33 35 35 35 34 36 35 35 37 38 38 39 40 38 39 39 39 40 41 41 41 41 41 40 42 43 44 43 45 42
30 33 32 31 31 33 35 36 37 36 36 35 34 34 34 34 34 34 35 36 37 37 38 40 41 40 37 37 37 39 39 39 40 40 40 40 41 41 42 41 42 43 43 43
26 28 27 28 30 33 32 34 36 36 36 34 34 34 34 35 36 34 36 37 38 39 40 38 37 38 37 38 37 37 38 39 38 39 39 39 39 41 41 42 42 42 43 43
28 30 36 33 33 35 34 36 37 36 34 35 35 35 35 35 34 34 38 38 39 39 38 37 37 36 36 36 37 38 38 38 38 38 38 40 41 42 43 43 43 41 40 40

GFSCGP_sfc_dewp_105.txt.gz
Dewpoint
25 19 16 15 14 10 9 9 9 9 7 9 15 17 15 16 16 18 20 22 24 25 26 28 31 34 38 44 48 53 57 68 69 68 67 68 67 67 67 68 71 72 71 70
20 19 18 15 14 13 13 12 12 12 12 15 17 17 17 18 19 21 21 22 24 25 26 28 31 35 38 43 49 53 56 62 66 63 69 67 67 64 65 66 70 71 71 72
20 18 17 15 14 16 16 15 15 14 14 17 19 18 20 19 19 20 21 23 23 25 26 29 30 34 36 40 47 52 58 62 65 67 65 70 69 68 62 62 65 69 71 71
20 19 17 16 14 14 15 14 13 13 15 12 16 11 18 19 20 20 22 24 25 25 25 28 31 36 39 40 41 45 52 59 60 67 64 68 63 62 60 60 60 67 72 71
18 17 15 15 14 14 14 13 14 16 18 18 16 15 18 21 21 22 24 24 26 27 32 33 34 38 40 41 41 45 54 56 59 63 67 61 64 57 58 60 67 70 71 73
18 16 17 18 18 17 17 16 20 21 19 18 20 19 18 18 21 23 24 26 28 31 33 34 37 39 40 40 43 47 51 56 58 60 63 67 68 67 61 60 60 61 65 69
19 18 17 19 18 20 21 23 18 17 16 16 20 18 22 25 25 25 27 26 33 34 33 33 35 36 39 41 43 46 49 53 56 57 59 60 65 68 70 68 61 61 60 63
23 20 21 21 20 20 21 22 18 19 20 18 23 23 25 28 27 27 26 29 32 32 34 34 35 36 37 40 43 45 47 49 51 55 58 60 61 57 57 63 62 61 57 60
26 25 25 25 24 23 25 23 24 29 30 25 22 25 26 27 27 28 29 31 32 34 36 36 34 36 38 41 44 45 47 49 49 51 56 59 61 63 61 65 66 62 67 63
32 31 31 32 31 32 28 27 28 30 32 26 22 25 25 32 31 30 32 33 34 34 35 35 35 37 39 41 43 44 46 47 48 49 51 53 57 60 61 65 66 67 69 69
33 33 31 31 30 28 28 30 29 29 29 30 26 24 29 32 35 35 34 33 33 34 34 34 35 35 35 38 38 43 44 45 46 49 51 52 54 57 59 62 63 66 68 68
33 39 32 30 30 30 31 31 31 36 33 32 34 34 32 36 37 36 34 34 34 33 33 33 33 34 35 36 39 41 44 44 45 46 47 50 54 55 57 59 61 63 65 65
37 36 32 26 28 31 29 32 33 34 38 35 33 29 35 36 36 35 35 33 30 33 34 34 35 34 34 36 38 39 40 41 43 45 46 48 50 54 58 58 57 58 61 58
40 34 31 30 28 34 35 34 32 32 37 31 29 28 29 32 39 38 35 31 32 34 35 34 34 34 35 36 37 38 38 39 40 41 44 47 49 51 53 56 58 57 56 57
38 35 32 30 28 29 28 26 25 26 29 30 30 28 27 31 32 29 31 33 32 33 33 33 34 34 35 36 37 37 37 38 40 40 41 44 47 49 49 52 55 55 55 56
41 34 33 29 27 25 26 24 23 22 22 24 25 26 28 30 31 33 35 35 35 33 32 33 34 34 35 36 37 38 39 39 40 41 40 42 43 44 47 49 54 56 55 56
37 38 35 29 25 27 23 22 24 20 21 22 20 22 24 27 31 33 33 32 31 32 32 33 34 36 37 38 39 40 39 40 41 41 40 40 41 41 43 46 48 55 55 55
36 34 37 29 27 25 25 29 25 25 25 25 26 27 31 31 32 30 30 31 31 32 33 35 35 36 38 39 40 42 40 41 40 40 40 40 39 40 41 44 46 52 55 57
35 35 34 32 27 27 25 27 28 29 28 30 31 31 31 31 31 31 30 32 34 35 35 35 35 35 38 38 39 41 43 42 42 40 40 39 38 39 41 43 49 51 52 55
36 39 36 32 30 23 36 35 34 32 27 37 36 35 33 32 28 27 33 34 35 36 35 34 35 36 38 40 42 41 41 41 41 40 40 41 40 40 42 45 49 49 50 49
37 37 32 33 32 29 34 34 34 29 35 39 36 35 34 32 31 34 35 35 34 34 36 36 37 36 39 40 41 41 41 41 41 41 42 41 43 43 44 46 47 49 48 47
35 33 34 33 33 29 39 34 33 38 39 37 36 35 33 33 33 33 33 33 33 34 35 36 37 38 38 41 41 41 40 42 41 42 43 43 43 42 40 43 43 46 48 49
31 35 37 36 36 40 39 41 37 38 37 36 35 34 33 32 33 31 31 32 32 35 36 37 38 40 39 40 42 41 42 40 41 42 41 41 42 41 42 42 43 41 45 45
31 36 36 33 34 35 36 34 36 36 36 36 34 33 34 32 32 32 32 32 34 38 39 39 39 38 40 39 38 40 40 40 40 40 41 41 40 41 43 41 41 41 41 42
26 27 27 27 27 33 32 35 35 35 35 34 33 34 33 33 33 33 32 33 38 39 39 39 38 38 37 37 37 37 38 39 39 39 40 39 38 39 41 41 42 41 42 43
31 31 35 35 36 36 35 36 35 36 34 34 35 34 34 33 32 31 33 38 38 39 38 37 36 36 36 36 36 36 36 37 38 38 38 38 40 40 41 42 42 40 40 40

GFSCGP_sfc_dewp_108.txt.gz
Dewpoint
22 18 15 15 15 13 10 8 9 10 7 10 11 12 13 13 13 16 21 25 29 30 31 36 41 46 51 52 56 62 64 67 69 72 74 74 71 72 71 71 72 71 72 72
20 21 20 16 15 14 12 11 11 11 11 11 11 12 14 17 20 20 21 25 28 30 31 34 41 48 52 56 60 61 62 68 68 67 73 72 71 69 70 70 71 73 72 72
19 18 18 18 16 14 14 14 15 13 13 14 14 15 18 18 19 21 22 26 27 30 32 37 40 48 51 54 56 58 64 66 70 68 66 68 71 70 68 68 69 71 72 72
20 20 18 17 16 14 15 14 15 14 14 10 14 12 21 19 21 23 25 26 26 28 32 35 38 48 50 50 53 59 63 65 63 68 68 68 65 68 65 67 68 69 70 70
18 19 18 17 16 16 15 14 14 14 14 16 14 13 16 18 18 21 25 27 29 30 33 37 38 45 44 50 53 58 63 63 65 68 69 65 65 62 63 64 67 68 71 71
20 20 16 15 16 18 17 16 16 16 15 15 16 15 16 19 23 25 27 27 28 28 35 36 40 42 44 46 50 58 60 64 65 66 67 67 67 66 65 65 67 66 63 71
22 19 18 18 16 18 18 22 17 17 16 17 19 18 22 27 28 27 26 28 34 35 34 35 36 36 45 47 51 51 58 58 61 62 64 65 67 68 67 65 64 65 63 63
23 22 22 22 20 20 21 23 18 18 19 18 25 25 24 30 30 31 30 30 35 34 34 35 36 38 36 44 50 51 54 54 58 58 60 64 66 62 62 64 63 62 61 61
27 24 26 32 29 27 23 21 26 27 31 27 25 27 27 34 32 32 29 30 34 37 38 36 36 39 43 46 51 54 54 55 56 55 56 61 64 64 63 65 65 62 63 62
30 29 30 30 31 31 30 30 29 33 33 25 22 25 25 35 33 34 33 32 34 37 35 36 36 42 44 45 52 53 53 53 53 54 55 54 57 57 62 64 64 65 65 65
34 33 31 31 29 29 28 31 33 34 29 30 26 25 32 36 39 39 38 36 36 36 36 36 35 38 37 39 38 44 50 50 51 53 54 55 55 56 58 61 61 63 65 65
34 37 32 29 29 29 29 29 31 36 32 34 34 35 36 38 36 38 36 36 35 35 34 32 33 35 35 37 38 40 49 48 47 49 50 54 56 54 56 58 60 62 62 63
38 35 31 25 22 35 37 37 39 40 40 36 34 29 32 38 38 38 37 38 38 36 32 32 35 35 36 37 38 38 41 42 43 44 43 48 55 55 55 56 58 61 59 58
38 33 30 28 26 32 30 33 35 36 35 34 33 29 30 34 40 37 38 39 37 34 36 34 35 35 37 38 37 38 39 40 42 42 43 47 50 53 54 55 54 57 58 58
36 33 32 29 27 27 26 25 25 26 29 30 27 25 27 31 33 31 38 36 35 35 36 37 37 36 37 38 40 39 39 40 42 41 42 45 48 49 50 51 53 54 57 56
36 34 33 30 28 26 26 26 24 23 23 23 23 23 28 29 27 32 36 36 33 32 33 34 36 36 38 40 41 42 43 43 43 42 42 43 45 45 47 48 50 52 56 56
37 37 33 28 27 31 27 24 23 25 27 25 21 26 28 30 34 35 34 31 30 32 32 34 37 39 41 41 43 43 43 43 43 42 41 41 42 42 44 45 46 48 52 57
34 34 34 30 28 23 24 32 32 27 25 32 33 28 31 32 32 30 29 29 33 34 35 37 37 38 38 39 41 43 42 42 42 41 41 41 40 41 41 42 45 49 51 56
35 36 36 30 27 27 25 31 33 36 29 36 36 34 33 32 31 30 30 32 34 36 35 35 35 38 39 39 41 41 41 41 41 40 40 40 40 40 41 42 45 44 47 49
36 38 36 32 29 25 34 37 36 33 26 38 36 35 34 31 27 28 36 34 34 36 35 35 36 37 37 39 42 40 41 41 41 40 40 41 40 41 41 43 44 45 45 46
36 38 33 31 30 28 37 38 37 29 34 38 36 34 33 32 34 37 36 36 36 34 34 35 36 38 40 40 41 40 41 41 43 43 42 41 41 42 42 43 45 45 44 44
36 35 34 34 30 28 39 36 34 38 39 37 35 35 34 34 34 34 34 34 34 34 34 34 37 40 41 40 40 40 39 40 42 43 43 41 41 41 41 43 43 44 44 45
33 37 36 36 35 39 39 41 43 39 36 35 35 34 33 32 34 33 33 33 33 35 34 37 38 39 39 39 41 38 40 41 41 41 40 40 40 41 41 42 42 41 41 43
34 36 36 33 32 33 34 38 39 38 36 35 34 33 33 33 33 33 33 33 32 35 36 39 40 39 38 38 38 38 38 38 37 37 38 39 40 40 41 42 41 41 41 40
33 29 30 28 31 38 33 37 36 35 36 34 32 33 34 34 33 33 32 32 35 38 39 40 39 37 36 37 37 37 37 36 36 36 37 37 38 39 40 40 40 40 42 41
28 34 35 34 35 37 37 36 35 36 34 33 34 35 35 34 33 32 32 36 38 38 39 37 37 36 35 36 36 36 36 36 36 36 36 36 38 38 40 40 40 39 39 39

GFSCGP_sfc_dewp_114.txt.gz
Dewpoint
26 21 18 19 20 18 16 15 14 14 14 14 12 14 14 14 12 11 19 20 22 23 25 27 31 35 50 58 63 62 58 59 60 62 69 70 70 70 71 71 71 69 68 68
23 20 21 20 20 19 18 15 13 15 17 15 16 15 16 16 15 17 18 20 23 23 23 26 29 38 46 47 52 51 51 57 56 54 61 68 69 68 70 71 71 70 70 69
20 20 22 21 21 21 19 16 16 16 18 19 17 15 15 17 21 19 19 22 24 24 24 26 28 36 44 47 48 49 51 53 56 57 59 59 60 61 64 64 67 68 70 70
20 20 20 20 20 20 18 18 17 17 18 13 17 13 16 15 17 20 19 20 21 25 28 26 39 44 47 48 51 54 56 55 58 61 60 58 58 57 59 60 62 63 65 68
21 23 23 21 20 21 18 19 18 23 19 15 15 13 15 18 16 18 20 22 26 23 29 39 40 42 46 49 49 52 54 57 57 57 56 56 55 57 59 60 59 60 63 67
23 26 23 21 21 21 21 22 21 21 18 14 15 14 14 14 15 19 23 34 35 32 39 39 39 43 46 46 49 48 49 51 53 53 54 55 56 58 59 59 59 59 58 61
23 22 23 25 25 30 26 18 16 15 15 16 25 25 19 23 35 34 33 34 35 36 36 37 37 38 43 43 47 46 45 50 49 50 50 49 51 56 57 57 58 58 58 59
22 23 28 32 30 30 29 24 19 16 18 19 29 24 25 36 39 37 36 36 35 35 35 35 35 35 39 41 43 44 43 47 47 47 47 48 54 55 54 55 57 58 59 60
25 27 31 32 32 31 30 29 32 27 31 26 27 28 29 38 39 39 37 37 36 35 36 36 36 36 37 40 42 43 42 42 47 46 47 48 50 48 50 52 54 56 56 59
34 27 32 33 32 31 30 31 29 31 23 22 27 26 26 35 38 39 41 40 38 37 36 36 35 38 35 35 37 38 42 43 46 46 45 45 46 46 49 51 52 53 55 57
34 32 32 32 31 29 29 28 31 32 35 30 27 26 35 36 37 37 38 40 40 43 40 35 33 36 34 34 33 34 37 42 45 46 46 46 48 47 48 48 50 52 54 55
37 35 31 31 32 32 30 32 36 32 32 36 35 31 37 37 35 37 36 37 38 40 40 38 36 34 35 35 35 35 36 41 43 44 46 45 46 48 48 48 50 51 52 53
35 32 27 22 23 30 32 34 36 37 35 33 32 31 38 38 35 36 36 34 39 39 38 37 36 35 36 36 36 37 37 39 39 41 40 40 41 45 49 47 48 50 50 49
37 32 28 23 21 30 30 30 30 35 32 31 32 32 32 34 35 39 36 38 39 36 35 36 36 37 38 39 39 39 39 41 40 40 40 40 40 41 42 45 47 48 47 49
32 28 30 31 32 32 30 29 29 27 28 29 26 28 28 31 34 36 37 35 34 33 34 35 35 35 36 37 37 37 38 41 40 40 40 41 41 42 43 44 45 46 48 49
35 28 33 32 32 31 30 28 28 28 29 27 27 28 34 35 34 32 31 32 32 32 33 34 34 34 34 34 36 36 38 40 40 39 40 41 42 42 43 43 43 43 43 45
33 32 29 26 30 29 26 26 25 28 37 35 32 35 38 38 35 33 33 32 31 32 32 33 34 34 33 34 35 37 38 39 40 40 39 40 39 38 39 41 41 41 41 41
34 32 33 28 27 21 25 31 34 37 39 40 38 37 39 38 37 37 33 32 31 32 32 34 34 33 33 34 37 38 40 40 41 40 39 39 39 38 38 38 39 40 40 40
35 34 31 26 23 26 27 38 36 33 35 40 39 36 34 34 33 32 34 33 32 33 33 33 32 32 32 33 39 40 40 40 39 39 38 38 38 37 36 37 39 39 39 38
35 37 34 31 26 22 33 40 41 39 29 39 37 34 33 33 31 31 34 34 33 33 32 32 32 32 37 39 40 39 38 38 37 37 37 37 37 38 39 40 41 40 39 38
35 35 32 32 30 31 37 39 42 28 30 41 40 34 32 33 33 33 35 34 33 33 32 33 34 35 36 38 39 38 37 37 37 38 38 37 39 36 36 37 39 44 41 39
32 32 31 33 30 27 38 37 33 36 39 40 35 34 34 32 33 34 34 34 34 33 32 32 33 36 37 37 38 38 36 37 37 38 37 36 36 37 36 39 41 40 41 40
28 33 34 35 35 41 40 39 40 40 38 37 34 34 33 34 34 34 34 34 32 32 32 36 36 35 35 36 36 36 37 37 37 36 36 36 35 35 35 36 37 40 40 39
34 40 37 37 38 39 40 40 39 38 36 37 35 33 34 34 34 35 34 32 32 35 36 35 35 34 34 34 35 37 37 37 35 35 34 34 35 35 34 35 35 35 35 36
31 33 33 33 34 37 39 39 38 39 39 36 35 35 35 35 34 34 33 33 35 35 35 35 34 35 34 34 34 34 35 35 33 33 34 34 35 35 35 35 36 37 38 40
31 30 31 30 37 36 37 38 39 37 37 37 36 35 35 35 34 35 35 35 35 35 34 34 34 34 34 34 32 32 33 34 33 33 33 34 35 36 37 37 37 38 38 38

GFSCGP_sfc_dewp_117.txt.gz
Dewpoint
25 21 19 20 20 19 18 16 15 16 17 16 12 13 15 17 14 14 15 17 21 23 24 24 26 37 54 62 64 65 63 62 63 64 63 65 67 69 70 70 69 67 67 68
21 20 21 21 21 21 19 18 16 16 16 14 15 15 17 17 16 14 14 17 21 22 22 24 27 35 50 59 63 63 62 60 60 59 67 68 68 68 68 68 68 70 69 68
19 20 23 22 21 21 20 17 17 16 18 19 17 15 15 17 19 19 20 20 21 22 23 24 25 34 46 54 58 60 57 58 56 53 59 60 59 60 61 62 63 64 64 67
19 21 21 20 20 21 19 21 20 19 17 12 17 12 15 16 18 18 18 18 20 22 24 25 25 35 44 47 48 51 53 54 55 56 57 55 54 54 58 58 61 61 63 64
20 23 22 21 20 20 18 21 21 19 16 15 16 12 14 17 14 15 23 23 27 35 34 28 31 39 46 49 51 53 54 57 58 57 55 55 55 56 58 58 57 58 60 64
22 25 24 22 23 25 26 20 20 21 18 13 14 14 15 14 18 30 33 35 36 37 39 41 44 47 48 49 50 51 53 53 55 55 55 54 53 55 57 57 57 57 58 59
23 22 23 25 23 31 24 18 15 14 14 14 24 22 22 26 36 37 34 35 35 36 38 40 42 44 45 46 47 48 49 49 49 50 49 49 50 55 56 56 55 55 56 57
21 23 29 32 30 29 28 22 18 13 15 16 28 21 24 37 39 36 36 36 36 35 35 35 37 40 42 44 44 44 46 47 47 47 47 47 52 52 52 54 55 55 56 57
24 27 32 33 32 31 30 29 28 26 29 26 25 26 30 38 39 40 41 39 39 38 36 36 37 37 40 41 42 42 42 42 46 46 46 46 50 50 50 51 53 54 55 57
33 26 34 34 31 31 30 34 29 30 23 21 25 26 25 35 37 39 39 41 41 42 42 36 34 36 35 39 40 41 41 41 41 46 46 46 47 48 48 49 51 52 53 55
34 30 30 31 30 29 29 27 30 31 31 24 24 26 31 36 37 36 36 37 39 41 43 42 39 35 36 35 34 35 36 38 42 45 46 45 45 46 47 47 48 50 51 54
36 33 30 30 32 33 30 32 32 26 26 34 35 31 36 36 33 33 33 34 37 37 39 41 39 36 37 37 38 38 39 39 39 41 43 46 45 45 47 47 47 48 51 51
33 30 24 17 22 29 31 34 36 34 32 30 26 28 37 35 33 33 34 35 35 39 37 37 37 37 38 38 38 37 37 38 39 40 40 40 40 40 41 45 47 47 48 50
37 32 25 20 16 29 29 31 31 32 30 27 30 30 31 32 32 33 34 37 36 35 35 35 35 35 36 36 36 36 35 37 39 39 39 39 39 40 40 41 43 45 47 47
30 26 31 30 31 32 31 31 30 28 29 27 27 27 28 30 31 35 33 33 32 32 33 34 33 34 34 34 35 36 35 36 39 39 39 39 40 40 41 42 43 44 46 47
33 27 31 31 32 32 30 30 30 28 28 28 28 27 32 34 31 31 31 31 31 31 32 33 34 34 34 33 34 34 35 36 39 39 39 39 39 40 41 42 42 43 43 44
32 31 28 25 30 29 25 27 26 26 29 30 30 32 37 36 35 34 33 31 31 32 32 33 33 33 32 33 33 34 34 38 39 40 40 40 40 40 40 40 40 41 41 41
32 29 28 25 26 21 23 29 35 33 39 39 38 37 37 37 37 35 35 32 32 32 32 32 32 32 32 33 34 35 39 40 40 39 39 39 39 38 38 39 38 38 38 38
35 32 31 24 22 25 26 37 35 32 32 40 38 38 37 33 33 33 34 33 33 33 33 33 32 32 32 33 37 39 38 38 38 37 37 37 37 36 36 37 37 36 36 37
35 36 33 31 26 23 28 39 41 38 30 39 38 36 33 32 31 32 33 34 34 34 33 33 33 33 34 36 36 37 37 37 37 37 37 37 36 37 37 37 39 38 37 41
29 31 31 31 29 30 34 37 42 28 27 38 39 38 35 32 33 32 34 35 35 34 34 33 33 33 34 36 37 36 35 37 37 36 37 37 35 35 36 36 36 34 35 35
29 31 30 32 30 27 40 38 33 33 38 39 39 37 33 33 33 34 34 35 35 34 32 32 35 36 35 34 34 35 36 35 35 37 37 35 35 35 37 36 35 35 36 40
28 31 27 30 29 39 42 42 41 41 38 36 35 34 33 33 33 34 34 34 34 33 33 36 35 34 33 33 35 36 34 35 35 35 34 34 35 35 35 36 35 33 33 34
32 38 33 35 35 38 39 41 41 39 38 37 37 34 35 33 34 34 34 34 33 34 35 35 35 33 32 33 34 35 36 35 34 34 33 34 35 35 36 37 36 36 35 34
29 30 31 33 33 36 37 40 39 39 39 38 35 35 35 34 34 34 35 34 35 35 34 34 33 33 33 33 34 35 34 34 33 33 33 33 33 34 34 36 37 37 38 39
30 28 28 27 32 35 34 36 39 38 37 36 35 34 34 34 34 35 35 35 34 33 33 33 33 33 33 33 33 33 33 33 33 32 32 33 33 33 34 35 35 37 37 38

GFSCGP_sfc_dewp_123.txt.gz
Dewpoint
18 16 17 21 22 17 17 17 15 17 17 16 17 17 19 22 21 21 25 27 29 29 30 33 36 40 43 48 55 65 68 71 70 69 68 68 68 68 69 70 71 71 71 71
18 19 23 23 22 20 19 18 18 19 19 18 18 19 21 22 22 22 24 26 30 33 35 37 38 38 43 49 53 60 68 70 70 69 69 68 68 69 69 71 71 71 70 70
18 20 23 21 21 21 20 19 20 17 20 19 19 18 20 19 21 23 27 37 39 40 41 43 44 44 41 47 56 59 65 69 70 70 69 67 68 68 69 71 72 71 70 70
21 21 22 21 20 20 19 21 19 20 21 14 19 11 21 21 22 22 38 38 39 42 44 46 48 49 48 45 46 57 64 68 68 69 68 69 66 64 66 66 69 65 66 65
17 21 20 20 19 22 18 23 23 23 22 20 17 16 18 20 19 31 37 38 41 43 46 48 50 51 51 52 52 56 62 65 65 66 68 67 66 67 62 63 64 64 66 65
22 24 23 22 23 22 23 21 22 22 20 17 19 17 16 18 27 36 37 38 39 41 43 46 49 52 54 55 57 60 62 62 62 63 64 65 64 62 60 61 60 59 60 62
23 22 23 23 25 30 23 22 16 15 14 14 23 18 18 29 36 36 37 38 39 39 40 42 44 45 49 52 55 58 60 60 62 61 61 62 63 64 63 62 58 60 57 58
20 19 27 30 23 22 27 24 16 13 13 13 26 19 25 37 38 39 40 41 42 43 42 40 40 43 44 47 49 50 53 53 54 55 56 57 59 56 57 60 57 56 55 56
24 26 32 32 32 30 29 24 26 25 30 23 19 27 37 39 39 37 34 35 37 40 41 43 43 42 42 43 46 47 49 49 50 51 54 55 55 56 57 60 61 57 60 55
30 29 33 32 31 33 32 33 29 30 26 20 22 25 22 37 37 35 34 34 35 37 37 39 42 45 45 44 46 48 47 47 48 49 50 50 53 54 54 56 57 59 59 59
32 30 31 32 31 29 31 30 32 31 30 25 20 21 34 38 38 36 35 34 35 36 37 39 41 42 42 42 40 43 42 41 42 43 45 47 47 49 52 53 54 55 56 55
37 34 30 30 32 33 31 30 33 35 30 34 33 30 37 39 37 36 33 34 36 39 40 39 40 40 39 39 38 39 41 39 39 40 42 44 45 46 47 48 49 51 52 52
36 33 27 26 29 32 30 34 35 37 37 34 31 25 37 39 40 36 33 35 36 39 38 36 36 36 36 37 37 36 38 38 38 39 38 41 44 45 46 48 48 47 47 46
39 32 29 26 20 32 30 32 32 32 34 26 30 26 29 33 35 34 32 36 35 35 35 35 36 35 36 37 37 37 37 37 37 38 38 41 43 44 44 45 46 46 45 44
36 32 30 28 29 30 27 26 29 29 28 27 22 24 26 29 31 32 35 35 34 33 34 35 35 36 37 38 38 37 37 37 38 38 38 41 42 42 42 43 43 43 44 43
35 33 31 28 29 30 29 28 28 28 28 28 28 28 30 33 33 33 34 33 33 34 34 35 36 37 37 38 38 38 38 38 38 39 38 39 40 40 41 42 42 44 44 44
35 36 32 25 29 27 21 23 25 27 29 28 25 28 32 35 35 35 35 35 35 36 35 35 37 37 39 39 39 39 39 39 39 39 38 37 38 37 38 40 41 43 44 44
36 35 34 26 28 20 23 28 28 29 29 31 30 33 38 38 37 36 35 35 36 36 36 36 36 38 38 39 39 40 39 40 39 37 36 35 36 37 39 41 41 43 42 41
35 35 34 30 26 25 23 36 34 34 31 36 38 38 38 38 35 36 35 35 36 37 37 37 37 38 39 38 39 40 40 39 38 36 35 35 36 38 39 39 39 39 39 40
36 37 36 32 27 22 29 37 40 38 28 39 39 39 37 36 34 33 36 36 36 37 37 37 37 37 38 39 40 39 38 37 36 35 35 37 37 37 37 36 36 37 37 36
34 35 33 31 31 30 33 37 40 29 32 39 39 39 39 37 37 39 39 38 38 38 37 37 37 36 38 39 38 37 36 36 37 37 37 37 36 36 37 36 37 37 37 37
33 33 32 33 31 27 39 37 34 38 40 40 40 40 39 38 38 37 37 37 37 36 36 35 36 36 36 36 35 35 35 37 36 37 37 36 35 37 38 37 37 37 37 37
34 36 35 35 34 39 41 40 41 42 39 39 40 40 39 38 37 36 36 36 35 36 36 36 34 34 34 34 35 35 35 35 37 36 34 35 36 36 36 36 36 36 36 35
35 37 37 35 35 37 39 40 41 40 41 42 41 40 38 37 36 35 34 34 35 36 36 34 33 32 33 34 34 34 35 36 35 34 34 35 34 34 35 35 36 35 35 35
31 37 35 34 33 32 31 35 37 39 40 39 37 36 35 35 34 34 34 35 35 35 33 33 32 32 33 32 33 34 34 35 33 33 33 33 33 33 33 34 34 35 35 36
30 30 32 29 31 34 34 37 39 40 37 36 36 35 34 34 35 35 35 36 34 33 32 32 32 33 32 32 33 33 33 34 32 31 30 31 31 31 32 33 33 34 35 35